CSN766 LIRN-ZBAD

Flight info

Callsign CSN766
Flight time 11h 26m
Altitude 29000
Route POLIT7G POLIT DCT RUTOM UM601 KFN DCT TRL UM601 MADEX DCT LINRO/N0494F310 UL52 VAXOS DCT VANZA DCT LAKTO L324 GENIV L550 KARIK B411 GIBAB/N0494F330 B411 MSD A647 NAZAR A847 NINOP B713 DERKI/K0913F330 Q678 EDOSU T609 BAMGU L141 KAMUD/K0909S1010 A468 XKC B215 HAM/K0896S1070 B215 NUKTI W66 DKO W64 ELAPU ELAPU5L
Aircraft B77W/H-SDE1E2E3FGHIJ2J3J4J5M1RWXY/LB1D1

Departure

Time 2026-04-23 20:08
Airport Naples International Airport (LIRN)

Arrival

Time 2026-04-24 07:35
Airport Beijing Daxing International Airport (ZBAD)
Time Latitude Longitude Altitude Speed Heading
2026-04-23 19:54 40.87995 14.28390 292 ft 0 kts 334°
2026-04-23 20:04 40.88003 14.28385 297 ft 6 kts 334°
2026-04-23 20:05 40.88056 14.28328 297 ft 13 kts 286°
2026-04-23 20:05 40.88046 14.28193 297 ft 16 kts 238°
2026-04-23 20:05 40.87973 14.28116 300 ft 12 kts 202°
2026-04-23 20:05 40.87913 14.28045 304 ft 12 kts 230°
2026-04-23 20:06 40.87862 14.27964 305 ft 8 kts 230°
2026-04-23 20:06 40.87852 14.27944 305 ft 3 kts 243°
2026-04-23 20:06 40.87863 14.27891 307 ft 10 kts 311°
2026-04-23 20:06 40.87888 14.27863 305 ft 0 kts 320°
2026-04-23 20:07 40.87892 14.27858 307 ft 0 kts 320°
2026-04-23 20:07 40.87913 14.27834 307 ft 10 kts 320°
2026-04-23 20:07 40.87999 14.27805 306 ft 13 kts 40°
2026-04-23 20:07 40.88130 14.28072 300 ft 71 kts 57°
2026-04-23 20:08 40.88542 14.28943 275 ft 151 kts 58°
2026-04-23 20:08 40.89239 14.30403 316 ft 213 kts 58°
2026-04-23 20:08 40.89978 14.32058 1369 ft 205 kts 59°
2026-04-23 20:08 40.90687 14.33609 2657 ft 192 kts 57°
2026-04-23 20:09 40.91390 14.35094 3263 ft 190 kts 56°
2026-04-23 20:09 40.92112 14.36590 3551 ft 195 kts 55°
2026-04-23 20:09 40.92861 14.38123 3739 ft 204 kts 56°
2026-04-23 20:09 40.93766 14.39593 3988 ft 210 kts 39°
2026-04-23 20:10 40.95053 14.40414 4470 ft 209 kts 11°
2026-04-23 20:10 40.96505 14.40262 4941 ft 214 kts 345°
2026-04-23 20:10 40.97801 14.39254 5356 ft 222 kts 321°
2026-04-23 20:10 40.98699 14.37547 5713 ft 234 kts 295°
2026-04-23 20:11 40.98922 14.35381 5998 ft 248 kts 264°
2026-04-23 20:11 40.98253 14.33229 6079 ft 263 kts 226°
2026-04-23 20:11 40.96766 14.31798 6267 ft 267 kts 197°
2026-04-23 20:11 40.94974 14.31499 6741 ft 258 kts 167°
2026-04-23 20:12 40.93312 14.32273 7056 ft 255 kts 149°
2026-04-23 20:12 40.91686 14.33337 7261 ft 268 kts 149°
2026-04-23 20:12 40.89976 14.34471 7507 ft 280 kts 149°
2026-04-23 20:12 40.88210 14.35646 7888 ft 288 kts 149°
2026-04-23 20:13 40.86403 14.36845 8415 ft 291 kts 150°
2026-04-23 20:13 40.84588 14.38046 8996 ft 293 kts 150°
2026-04-23 20:13 40.82753 14.39256 9529 ft 297 kts 150°
2026-04-23 20:13 40.80894 14.40478 10042 ft 300 kts 150°
2026-04-23 20:14 40.79025 14.41707 10389 ft 310 kts 150°
2026-04-23 20:14 40.77039 14.43011 10540 ft 328 kts 150°
2026-04-23 20:14 40.74938 14.44388 10696 ft 346 kts 150°
2026-04-23 20:14 40.72726 14.45836 10839 ft 365 kts 150°
2026-04-23 20:15 40.70399 14.47355 11109 ft 379 kts 150°
2026-04-23 20:15 40.68009 14.48911 11591 ft 388 kts 150°
2026-04-23 20:15 40.65563 14.50474 12226 ft 393 kts 152°
2026-04-23 20:15 40.63063 14.51972 12917 ft 397 kts 152°
2026-04-23 20:16 40.60530 14.53498 13479 ft 402 kts 151°
2026-04-23 20:16 40.57988 14.55075 14073 ft 406 kts 150°
2026-04-23 20:16 40.55437 14.56701 14675 ft 409 kts 149°
2026-04-23 20:16 40.52880 14.58360 15291 ft 411 kts 149°
2026-04-23 20:17 40.50312 14.60034 15877 ft 413 kts 149°
2026-04-23 20:17 40.47724 14.61726 16459 ft 416 kts 149°
2026-04-23 20:17 40.45116 14.63437 17014 ft 420 kts 149°
2026-04-23 20:17 40.42491 14.65160 17144 ft 424 kts 149°
2026-04-23 20:18 40.39859 14.66885 17154 ft 422 kts 149°
2026-04-23 20:18 40.37231 14.68605 17125 ft 421 kts 149°
2026-04-23 20:18 40.34615 14.70317 17138 ft 421 kts 149°
2026-04-23 20:18 40.31992 14.72031 17135 ft 421 kts 149°
2026-04-23 20:19 40.29369 14.73744 17127 ft 421 kts 149°
2026-04-23 20:19 40.26745 14.75457 17128 ft 422 kts 149°
2026-04-23 20:19 40.24112 14.77175 17128 ft 422 kts 149°
2026-04-23 20:19 40.21486 14.78885 17124 ft 422 kts 149°
2026-04-23 20:20 40.18839 14.80606 17343 ft 426 kts 149°
2026-04-23 20:20 40.16317 14.82585 17771 ft 422 kts 137°
2026-04-23 20:20 40.14253 14.85279 18301 ft 417 kts 123°
2026-04-23 20:20 40.12698 14.88433 18834 ft 409 kts 111°
2026-04-23 20:21 40.11501 14.91805 19233 ft 412 kts 110°
2026-04-23 20:21 40.10299 14.95190 19880 ft 409 kts 110°
2026-04-23 20:21 40.09089 14.98556 20472 ft 410 kts 110°
2026-04-23 20:21 40.07880 15.01899 20875 ft 414 kts 110°
2026-04-23 20:22 40.06637 15.05317 21277 ft 418 kts 111°
2026-04-23 20:22 40.05379 15.08756 21742 ft 421 kts 111°
2026-04-23 20:22 40.04112 15.12209 22234 ft 422 kts 111°
2026-04-23 20:22 40.02837 15.15675 22695 ft 425 kts 111°
2026-04-23 20:23 40.01552 15.19160 23132 ft 428 kts 111°
2026-04-23 20:23 40.00256 15.22670 23557 ft 430 kts 111°
2026-04-23 20:23 39.98952 15.26200 23933 ft 433 kts 111°
2026-04-23 20:23 39.97644 15.29736 24337 ft 434 kts 111°
2026-04-23 20:24 39.96332 15.33273 24834 ft 432 kts 111°
2026-04-23 20:24 39.95022 15.36805 25209 ft 434 kts 111°
2026-04-23 20:24 39.93703 15.40358 25515 ft 437 kts 111°
2026-04-23 20:24 39.92371 15.43944 25811 ft 440 kts 111°
2026-04-23 20:25 39.91034 15.47539 26142 ft 442 kts 111°
2026-04-23 20:25 39.89690 15.51146 26477 ft 443 kts 111°
2026-04-23 20:25 39.88338 15.54769 26816 ft 445 kts 111°
2026-04-23 20:25 39.87000 15.58353 27120 ft 447 kts 111°
2026-04-23 20:26 39.85636 15.61999 27428 ft 449 kts 111°
2026-04-23 20:26 39.84247 15.65708 27803 ft 450 kts 111°
2026-04-23 20:26 39.82897 15.69306 28264 ft 448 kts 110°
2026-04-23 20:26 39.81527 15.72953 28564 ft 450 kts 110°
2026-04-23 20:27 39.80148 15.76626 28769 ft 453 kts 110°
2026-04-23 20:27 39.78761 15.80315 28976 ft 455 kts 110°
2026-04-23 20:27 39.77365 15.84025 29050 ft 459 kts 111°
2026-04-23 20:28 39.74543 15.91506 29093 ft 464 kts 111°
2026-04-23 20:28 39.71685 15.99056 29103 ft 467 kts 111°
2026-04-23 20:29 39.68836 16.06539 29107 ft 456 kts 111°
2026-04-23 20:29 39.66031 16.13914 29120 ft 457 kts 111°
2026-04-23 20:30 39.63211 16.21329 29125 ft 460 kts 111°
2026-04-23 20:30 39.58938 16.32504 29120 ft 461 kts 111°
2026-04-23 20:31 39.56082 16.39947 29119 ft 461 kts 111°
2026-04-23 20:31 39.53226 16.47368 29111 ft 459 kts 111°
2026-04-23 20:32 39.50398 16.54701 29100 ft 457 kts 111°
2026-04-23 20:32 39.47555 16.62052 29106 ft 456 kts 111°
2026-04-23 20:33 39.44719 16.69378 29113 ft 455 kts 111°
2026-04-23 20:33 39.41879 16.76702 29135 ft 456 kts 111°
2026-04-23 20:34 39.39017 16.84044 29101 ft 458 kts 111°
2026-04-23 20:34 39.36146 16.91401 29109 ft 459 kts 111°
2026-04-23 20:35 39.33268 16.98758 29106 ft 459 kts 112°
2026-04-23 20:35 39.30383 17.06116 29107 ft 459 kts 112°
2026-04-23 20:36 39.27494 17.13463 29073 ft 458 kts 112°
2026-04-23 20:36 39.24612 17.20773 29072 ft 456 kts 112°
2026-04-23 20:37 39.21735 17.28057 29085 ft 455 kts 112°
2026-04-23 20:37 39.18859 17.35321 29082 ft 455 kts 112°
2026-04-23 20:38 39.15980 17.42577 29086 ft 456 kts 112°
2026-04-23 20:38 39.13078 17.49873 29083 ft 461 kts 113°
2026-04-23 20:39 39.10125 17.57285 29081 ft 468 kts 113°
2026-04-23 20:39 39.07144 17.64737 29069 ft 468 kts 113°
2026-04-23 20:40 39.04161 17.72175 29070 ft 467 kts 113°
2026-04-23 20:40 39.01192 17.79565 29068 ft 468 kts 114°
2026-04-23 20:41 38.98194 17.87010 29071 ft 469 kts 114°
2026-04-23 20:41 38.95185 17.94464 29066 ft 470 kts 114°
2026-04-23 20:42 38.92167 18.01922 29067 ft 471 kts 114°
2026-04-23 20:42 38.89142 18.09381 29062 ft 471 kts 114°
2026-04-23 20:43 38.86110 18.16837 29057 ft 471 kts 114°
2026-04-23 20:43 38.83077 18.24276 29050 ft 470 kts 114°
2026-04-23 20:44 38.80062 18.31655 29052 ft 470 kts 114°
2026-04-23 20:44 38.77022 18.39080 29054 ft 473 kts 114°
2026-04-23 20:45 38.73935 18.46605 29056 ft 481 kts 114°
2026-04-23 20:45 38.70799 18.54224 29055 ft 486 kts 115°
2026-04-23 20:46 38.67635 18.61890 29044 ft 488 kts 115°
2026-04-23 20:46 38.64467 18.69548 29038 ft 486 kts 115°
2026-04-23 20:47 38.61305 18.77174 29039 ft 484 kts 115°
2026-04-23 20:47 38.58152 18.84762 29027 ft 482 kts 114°
2026-04-23 20:48 38.55533 18.91055 29031 ft 482 kts 115°
2026-04-23 20:48 38.52398 18.98620 29027 ft 481 kts 113°
2026-04-23 20:49 38.50003 19.06553 29033 ft 478 kts 104°
2026-04-23 20:49 38.47943 19.14647 29016 ft 481 kts 105°
2026-04-23 20:50 38.45722 19.22775 29039 ft 488 kts 107°
2026-04-23 20:50 38.43372 19.30931 29019 ft 491 kts 107°
2026-04-23 20:51 38.41015 19.39097 29017 ft 490 kts 108°
2026-04-23 20:51 38.38692 19.47201 29026 ft 489 kts 107°
2026-04-23 20:52 38.36357 19.55367 29017 ft 490 kts 108°
2026-04-23 20:52 38.33998 19.63600 29025 ft 499 kts 109°
2026-04-23 20:53 38.31593 19.71956 29020 ft 506 kts 109°
2026-04-23 20:53 38.29154 19.80405 29030 ft 509 kts 110°
2026-04-23 20:54 38.26699 19.88874 29013 ft 510 kts 110°
2026-04-23 20:54 38.24238 19.97341 29007 ft 510 kts 110°
2026-04-23 20:55 38.21770 20.05805 29010 ft 510 kts 110°
2026-04-23 20:55 38.19298 20.14258 29006 ft 510 kts 110°
2026-04-23 20:56 38.16815 20.22725 29006 ft 512 kts 110°
2026-04-23 20:56 38.14329 20.31172 29016 ft 515 kts 111°
2026-04-23 20:57 38.11809 20.39706 29013 ft 517 kts 111°
2026-04-23 20:57 38.09278 20.48254 28999 ft 518 kts 111°
2026-04-23 20:58 38.06731 20.56829 29015 ft 520 kts 111°
2026-04-23 20:58 38.04169 20.65424 29014 ft 522 kts 111°
2026-04-23 20:59 38.01596 20.74032 29008 ft 522 kts 111°
2026-04-23 20:59 37.99011 20.82652 28999 ft 523 kts 112°
2026-04-23 21:00 37.96417 20.91272 29007 ft 524 kts 112°
2026-04-23 21:00 37.93815 20.99899 29011 ft 524 kts 112°
2026-04-23 21:01 37.91202 21.08532 29001 ft 525 kts 112°
2026-04-23 21:01 37.88578 21.17173 28982 ft 526 kts 113°
2026-04-23 21:02 37.85939 21.25837 29005 ft 529 kts 113°
2026-04-23 21:02 37.83275 21.34554 29003 ft 532 kts 113°
2026-04-23 21:03 37.80594 21.43298 28998 ft 533 kts 113°
2026-04-23 21:03 37.77907 21.52046 28977 ft 535 kts 114°
2026-04-23 21:04 37.75208 21.60792 29037 ft 540 kts 114°
2026-04-23 21:04 37.72460 21.69663 29028 ft 544 kts 114°
2026-04-23 21:05 37.69691 21.78587 29020 ft 545 kts 114°
2026-04-23 21:05 37.66914 21.87509 29033 ft 547 kts 115°
2026-04-23 21:06 37.64122 21.96450 29042 ft 549 kts 115°
2026-04-23 21:06 37.61314 22.05409 29045 ft 549 kts 115°
2026-04-23 21:07 37.58501 22.14363 29019 ft 549 kts 115°
2026-04-23 21:07 37.55683 22.23305 29043 ft 548 kts 116°
2026-04-23 21:08 37.52860 22.32224 29052 ft 549 kts 116°
2026-04-23 21:08 37.50067 22.41021 29060 ft 549 kts 116°
2026-04-23 21:09 37.47221 22.49958 29041 ft 550 kts 116°
2026-04-23 21:09 37.44363 22.58903 29052 ft 551 kts 116°
2026-04-23 21:10 37.41498 22.67856 29041 ft 552 kts 116°
2026-04-23 21:10 37.38620 22.76813 29041 ft 552 kts 116°
2026-04-23 21:11 37.35737 22.85762 29053 ft 552 kts 117°
2026-04-23 21:11 37.32843 22.94713 29047 ft 553 kts 117°
2026-04-23 21:12 37.29943 23.03652 29043 ft 553 kts 117°
2026-04-23 21:12 37.27038 23.12583 29039 ft 552 kts 117°
2026-04-23 21:13 37.24128 23.21503 29048 ft 552 kts 117°
2026-04-23 21:13 37.21214 23.30404 29038 ft 551 kts 117°
2026-04-23 21:14 37.18295 23.39296 29007 ft 550 kts 117°
2026-04-23 21:14 37.15377 23.48159 29018 ft 549 kts 117°
2026-04-23 21:15 37.12456 23.56999 29027 ft 549 kts 117°
2026-04-23 21:15 37.09529 23.65834 29023 ft 549 kts 117°
2026-04-23 21:16 37.06595 23.74662 29022 ft 549 kts 117°
2026-04-23 21:16 37.03654 23.83485 29018 ft 549 kts 117°
2026-04-23 21:17 37.00708 23.92296 29026 ft 549 kts 117°
2026-04-23 21:17 36.97772 24.01055 29024 ft 549 kts 117°
2026-04-23 21:18 36.94809 24.09863 29025 ft 549 kts 117°
2026-04-23 21:18 36.91842 24.18660 29007 ft 549 kts 117°
2026-04-23 21:19 36.88869 24.27447 29033 ft 550 kts 117°
2026-04-23 21:19 36.87372 24.31860 29232 ft 551 kts 117°
2026-04-23 21:19 36.85877 24.36264 29598 ft 550 kts 117°
2026-04-23 21:20 36.84386 24.40653 30010 ft 547 kts 118°
2026-04-23 21:20 36.82902 24.45014 30368 ft 545 kts 118°
2026-04-23 21:20 36.81423 24.49354 30671 ft 543 kts 118°
2026-04-23 21:20 36.79941 24.53693 30916 ft 543 kts 118°
2026-04-23 21:21 36.76968 24.62374 31010 ft 545 kts 118°
2026-04-23 21:21 36.73990 24.71049 31010 ft 543 kts 118°
2026-04-23 21:22 36.71020 24.79677 31007 ft 541 kts 118°
2026-04-23 21:22 36.68066 24.88232 31007 ft 540 kts 118°
2026-04-23 21:23 36.65088 24.96830 31007 ft 541 kts 118°
2026-04-23 21:23 36.62099 25.05433 30996 ft 541 kts 118°
2026-04-23 21:24 36.59104 25.14036 31009 ft 542 kts 118°
2026-04-23 21:24 36.56099 25.22639 30980 ft 542 kts 118°
2026-04-23 21:25 36.53083 25.31254 30991 ft 543 kts 118°
2026-04-23 21:25 36.50061 25.39859 30984 ft 543 kts 118°
2026-04-23 21:26 36.47030 25.48467 30998 ft 543 kts 118°
2026-04-23 21:26 36.43991 25.57070 30994 ft 543 kts 118°
2026-04-23 21:27 36.40948 25.65662 30978 ft 543 kts 118°
2026-04-23 21:27 36.37903 25.74236 30990 ft 542 kts 118°
2026-04-23 21:28 36.34870 25.82751 30971 ft 542 kts 118°
2026-04-23 21:28 36.31818 25.91296 30968 ft 542 kts 118°
2026-04-23 21:29 36.28766 25.99821 30972 ft 540 kts 118°
2026-04-23 21:29 36.25714 26.08320 30976 ft 540 kts 118°
2026-04-23 21:30 36.22653 26.16819 30981 ft 539 kts 118°
2026-04-23 21:30 36.19590 26.25301 30982 ft 540 kts 118°
2026-04-23 21:31 36.16520 26.33777 30977 ft 539 kts 118°
2026-04-23 21:31 36.13445 26.42249 30975 ft 539 kts 118°
2026-04-23 21:32 36.10364 26.50711 30969 ft 539 kts 118°
2026-04-23 21:32 36.07298 26.59110 30953 ft 539 kts 118°
2026-04-23 21:33 36.04208 26.67551 30969 ft 539 kts 118°
2026-04-23 21:33 36.01112 26.75986 30968 ft 539 kts 118°
2026-04-23 21:34 35.98011 26.84412 30963 ft 539 kts 118°
2026-04-23 21:34 35.94902 26.92836 30959 ft 539 kts 118°
2026-04-23 21:35 35.91791 27.01246 30965 ft 538 kts 118°
2026-04-23 21:35 35.89201 27.08228 30965 ft 539 kts 118°
2026-04-23 21:36 35.84510 27.20836 30956 ft 539 kts 118°
2026-04-23 21:37 35.81374 27.29238 30943 ft 539 kts 118°
2026-04-23 21:37 35.78231 27.37636 30952 ft 539 kts 118°
2026-04-23 21:38 35.75086 27.46016 30948 ft 539 kts 118°
2026-04-23 21:38 35.71957 27.54331 30947 ft 538 kts 118°
2026-04-23 21:39 35.68805 27.62685 30949 ft 538 kts 119°
2026-04-23 21:39 35.65651 27.71024 30947 ft 538 kts 119°
2026-04-23 21:40 35.62494 27.79350 30945 ft 537 kts 119°
2026-04-23 21:40 35.59327 27.87678 30945 ft 537 kts 119°
2026-04-23 21:41 35.56160 27.95987 30945 ft 537 kts 119°
2026-04-23 21:41 35.52982 28.04301 30945 ft 537 kts 119°
2026-04-23 21:42 35.49802 28.12602 30933 ft 537 kts 119°
2026-04-23 21:42 35.46634 28.20848 30944 ft 537 kts 119°
2026-04-23 21:43 35.43444 28.29129 30940 ft 537 kts 119°
2026-04-23 21:43 35.40252 28.37396 30919 ft 537 kts 119°
2026-04-23 21:44 35.37057 28.45649 30933 ft 535 kts 119°
2026-04-23 21:44 35.33863 28.53879 30938 ft 534 kts 119°
2026-04-23 21:45 35.30667 28.62094 30940 ft 534 kts 119°
2026-04-23 21:45 35.27467 28.70297 30930 ft 533 kts 119°
2026-04-23 21:46 35.24268 28.78477 30933 ft 533 kts 119°
2026-04-23 21:46 35.21064 28.86650 30945 ft 533 kts 119°
2026-04-23 21:47 35.17849 28.94827 30938 ft 533 kts 119°
2026-04-23 21:47 35.14629 29.03002 30938 ft 533 kts 119°
2026-04-23 21:48 35.11403 29.11169 30935 ft 534 kts 119°
2026-04-23 21:48 35.08171 29.19331 30937 ft 534 kts 119°
2026-04-23 21:49 35.04934 29.27485 30929 ft 534 kts 119°
2026-04-23 21:49 35.01692 29.35633 30936 ft 533 kts 119°
2026-04-23 21:50 34.98466 29.43720 30938 ft 533 kts 120°
2026-04-23 21:50 34.95212 29.51857 30934 ft 533 kts 120°
2026-04-23 21:51 34.91955 29.59983 30922 ft 533 kts 120°
2026-04-23 21:51 34.88693 29.68100 30930 ft 533 kts 120°
2026-04-23 21:52 34.85424 29.76216 30938 ft 534 kts 120°
2026-04-23 21:52 34.82147 29.84333 30925 ft 534 kts 120°
2026-04-23 21:53 34.78867 29.92440 30940 ft 534 kts 120°
2026-04-23 21:53 34.74911 29.99980 30935 ft 525 kts 135°
2026-04-23 21:54 34.69831 30.06233 30933 ft 515 kts 147°
2026-04-23 21:54 34.64273 30.11727 30915 ft 516 kts 147°
2026-04-23 21:55 34.58754 30.17211 30933 ft 517 kts 147°
2026-04-23 21:55 34.53205 30.22777 30938 ft 517 kts 146°
2026-04-23 21:56 34.47661 30.28355 30938 ft 518 kts 146°
2026-04-23 21:56 34.42113 30.33928 30939 ft 518 kts 146°
2026-04-23 21:57 34.36556 30.39497 30939 ft 518 kts 146°
2026-04-23 21:57 34.31002 30.45051 30937 ft 517 kts 147°
2026-04-23 21:58 34.25452 30.50590 30939 ft 517 kts 147°
2026-04-23 21:58 34.19907 30.56115 30942 ft 516 kts 147°
2026-04-23 21:59 34.14364 30.61628 30942 ft 516 kts 147°
2026-04-23 21:59 34.08816 30.67136 30943 ft 516 kts 147°
2026-04-23 22:00 34.00502 30.75373 30940 ft 516 kts 147°
2026-04-23 22:00 33.94950 30.80860 30950 ft 516 kts 147°
2026-04-23 22:01 33.89389 30.86347 30946 ft 517 kts 147°
2026-04-23 22:01 33.83854 30.91799 30945 ft 518 kts 147°
2026-04-23 22:02 33.78272 30.97289 30927 ft 518 kts 147°
2026-04-23 22:02 33.72693 31.02767 30943 ft 518 kts 147°
2026-04-23 22:03 33.67104 31.08244 30950 ft 518 kts 147°
2026-04-23 22:03 33.61515 31.13712 30951 ft 518 kts 147°
2026-04-23 22:04 33.55918 31.19178 30953 ft 519 kts 147°
2026-04-23 22:04 33.50319 31.24636 30936 ft 518 kts 147°
2026-04-23 22:05 33.44723 31.30083 30931 ft 518 kts 147°
2026-04-23 22:05 33.39135 31.35512 30954 ft 517 kts 147°
2026-04-23 22:06 33.33541 31.40938 30946 ft 518 kts 147°
2026-04-23 22:06 33.27942 31.46359 30954 ft 518 kts 147°
2026-04-23 22:07 33.22339 31.51775 30951 ft 518 kts 147°
2026-04-23 22:07 33.16777 31.57142 30945 ft 517 kts 147°
2026-04-23 22:08 33.11182 31.62533 30946 ft 516 kts 146°
2026-04-23 22:08 33.05589 31.67913 30952 ft 516 kts 146°
2026-04-23 22:09 32.99998 31.73280 30951 ft 516 kts 146°
2026-04-23 22:09 32.94412 31.78635 30953 ft 515 kts 147°
2026-04-23 22:10 32.88823 31.83983 30952 ft 515 kts 146°
2026-04-23 22:10 32.83238 31.89319 30937 ft 515 kts 146°
2026-04-23 22:11 32.77659 31.94640 30951 ft 514 kts 146°
2026-04-23 22:11 32.72077 31.99956 30956 ft 513 kts 146°
2026-04-23 22:12 32.66508 32.05253 30956 ft 513 kts 146°
2026-04-23 22:12 32.61165 32.10828 30945 ft 518 kts 137°
2026-04-23 22:13 32.56287 32.17128 30953 ft 519 kts 137°
2026-04-23 22:13 32.51413 32.23429 30954 ft 518 kts 137°
2026-04-23 22:14 32.46508 32.29693 30950 ft 518 kts 137°
2026-04-23 22:14 32.41594 32.35927 30949 ft 518 kts 137°
2026-04-23 22:15 32.36669 32.42161 30954 ft 518 kts 137°
2026-04-23 22:15 32.31750 32.48381 30961 ft 518 kts 137°
2026-04-23 22:16 32.26853 32.54565 30948 ft 518 kts 137°
2026-04-23 22:16 32.21922 32.60782 30947 ft 518 kts 137°
2026-04-23 22:17 32.16993 32.66986 30960 ft 518 kts 137°
2026-04-23 22:17 32.12062 32.73181 30938 ft 517 kts 137°
2026-04-23 22:18 32.07133 32.79364 30948 ft 517 kts 137°
2026-04-23 22:18 32.02210 32.85529 30950 ft 516 kts 137°
2026-04-23 22:19 31.97290 32.91679 30946 ft 516 kts 137°
2026-04-23 22:19 31.92370 32.97820 30950 ft 515 kts 137°
2026-04-23 22:20 31.87448 33.03956 30946 ft 515 kts 137°
2026-04-23 22:20 31.82283 33.09688 30936 ft 503 kts 153°
2026-04-23 22:21 31.79179 33.11462 30960 ft 492 kts 166°
2026-04-23 22:21 31.75890 33.12449 30940 ft 484 kts 177°
2026-04-23 22:21 31.69287 33.12727 30959 ft 479 kts 184°
2026-04-23 22:22 31.62584 33.12995 30960 ft 484 kts 182°
2026-04-23 22:22 31.56926 33.13282 30961 ft 487 kts 182°
2026-04-23 22:23 31.50197 33.13628 30947 ft 488 kts 182°
2026-04-23 22:23 31.43421 33.13967 30949 ft 487 kts 182°
2026-04-23 22:24 31.36692 33.15093 30943 ft 494 kts 168°
2026-04-23 22:24 31.30300 33.18152 30953 ft 501 kts 156°
2026-04-23 22:25 31.24203 33.22085 30954 ft 501 kts 155°
2026-04-23 22:25 31.18094 33.26013 30953 ft 501 kts 156°
2026-04-23 22:26 31.11969 33.29892 30952 ft 501 kts 156°
2026-04-23 22:26 31.05826 33.33749 30957 ft 502 kts 156°
2026-04-23 22:27 30.99678 33.37600 30947 ft 502 kts 156°
2026-04-23 22:27 30.93518 33.41456 30958 ft 503 kts 156°
2026-04-23 22:28 30.87354 33.45311 30955 ft 503 kts 156°
2026-04-23 22:28 30.81187 33.49162 30956 ft 503 kts 156°
2026-04-23 22:29 30.75021 33.53007 30955 ft 503 kts 156°
2026-04-23 22:29 30.68855 33.56847 30966 ft 503 kts 156°
2026-04-23 22:30 30.62688 33.60681 30965 ft 502 kts 156°
2026-04-23 22:30 30.56569 33.64479 30962 ft 502 kts 156°
2026-04-23 22:31 30.50408 33.68298 30964 ft 502 kts 156°
2026-04-23 22:31 30.44254 33.72108 30949 ft 501 kts 156°
2026-04-23 22:32 30.38104 33.75910 30954 ft 501 kts 156°
2026-04-23 22:32 30.31959 33.79702 30962 ft 501 kts 156°
2026-04-23 22:33 30.25811 33.83492 30965 ft 501 kts 156°
2026-04-23 22:33 30.19653 33.87281 30965 ft 501 kts 156°
2026-04-23 22:34 30.13498 33.91064 30952 ft 501 kts 157°
2026-04-23 22:34 30.07336 33.94846 30965 ft 501 kts 157°
2026-04-23 22:35 30.01175 33.98622 30963 ft 502 kts 157°
2026-04-23 22:35 29.95004 34.02398 30959 ft 502 kts 157°
2026-04-23 22:36 29.88830 34.06172 30964 ft 502 kts 157°
2026-04-23 22:36 29.82662 34.09937 30960 ft 502 kts 157°
2026-04-23 22:37 29.76485 34.13701 30960 ft 502 kts 157°
2026-04-23 22:37 29.70308 34.17462 30960 ft 503 kts 158°
2026-04-23 22:38 29.64401 34.21670 30947 ft 511 kts 139°
2026-04-23 22:38 29.62223 34.24941 30961 ft 523 kts 121°
2026-04-23 22:38 29.60874 34.28843 30969 ft 531 kts 106°
2026-04-23 22:39 29.60444 34.33065 30950 ft 533 kts 90°
2026-04-23 22:39 29.60570 34.37327 30975 ft 535 kts 89°
2026-04-23 22:39 29.60727 34.45906 30960 ft 539 kts 91°
2026-04-23 22:40 29.60650 34.54530 30919 ft 537 kts 98°
2026-04-23 22:40 29.58135 34.62380 30953 ft 522 kts 129°
2026-04-23 22:41 29.55805 34.65522 30934 ft 512 kts 144°
2026-04-23 22:41 29.50207 34.70507 30931 ft 511 kts 147°
2026-04-23 22:42 29.45310 34.76500 30921 ft 528 kts 124°
2026-04-23 22:42 29.43749 34.80331 30916 ft 536 kts 111°
2026-04-23 22:42 29.42911 34.84509 30913 ft 540 kts 99°
2026-04-23 22:43 29.42187 34.93100 30898 ft 543 kts 92°
2026-04-23 22:43 29.42577 35.01700 30916 ft 545 kts 83°
2026-04-23 22:44 29.44288 35.10165 30914 ft 545 kts 74°
2026-04-23 22:44 29.46384 35.18522 30930 ft 545 kts 74°
2026-04-23 22:45 29.48410 35.26901 30914 ft 545 kts 75°
2026-04-23 22:45 29.50372 35.35297 30954 ft 544 kts 75°
2026-04-23 22:46 29.52327 35.43692 30936 ft 543 kts 75°
2026-04-23 22:46 29.54281 35.52064 30915 ft 543 kts 75°
2026-04-23 22:47 29.56244 35.60379 30932 ft 543 kts 75°
2026-04-23 22:47 29.58219 35.68775 30925 ft 544 kts 75°
2026-04-23 22:48 29.60184 35.77173 30932 ft 545 kts 75°
2026-04-23 22:48 29.61927 35.85649 30917 ft 545 kts 79°
2026-04-23 22:49 29.63303 35.94211 30915 ft 545 kts 80°
2026-04-23 22:49 29.64666 36.02780 30910 ft 545 kts 80°
2026-04-23 22:50 29.66050 36.11298 30909 ft 544 kts 80°
2026-04-23 22:50 29.67444 36.19842 30910 ft 544 kts 80°
2026-04-23 22:51 29.68830 36.28393 30906 ft 543 kts 80°
2026-04-23 22:51 29.70208 36.36942 30905 ft 543 kts 80°
2026-04-23 22:52 29.71594 36.45492 30911 ft 543 kts 80°
2026-04-23 22:52 29.72985 36.54041 30896 ft 544 kts 80°
2026-04-23 22:53 29.74367 36.62592 30909 ft 544 kts 80°
2026-04-23 22:53 29.75761 36.71164 30909 ft 545 kts 79°
2026-04-23 22:54 29.77309 36.79707 30907 ft 546 kts 78°
2026-04-23 22:54 29.78892 36.88187 30904 ft 545 kts 78°
2026-04-23 22:55 29.80455 36.96724 30909 ft 544 kts 79°
2026-04-23 22:55 29.81994 37.05264 30903 ft 544 kts 79°
2026-04-23 22:56 29.83523 37.13800 30914 ft 544 kts 79°
2026-04-23 22:56 29.85048 37.22328 30920 ft 544 kts 79°
2026-04-23 22:57 29.86570 37.30867 30907 ft 544 kts 79°
2026-04-23 22:57 29.88085 37.39400 30909 ft 543 kts 79°
2026-04-23 22:58 29.89593 37.47931 30896 ft 543 kts 79°
2026-04-23 22:58 29.91089 37.56423 30906 ft 543 kts 79°
2026-04-23 22:59 29.92592 37.64963 30911 ft 544 kts 79°
2026-04-23 22:59 29.94095 37.73501 30890 ft 544 kts 79°
2026-04-23 23:00 29.95595 37.82050 30905 ft 544 kts 79°
2026-04-23 23:00 29.97090 37.90612 30909 ft 545 kts 79°
2026-04-23 23:01 29.98579 37.99178 30909 ft 545 kts 79°
2026-04-23 23:01 30.00066 38.07766 30933 ft 546 kts 79°
2026-04-23 23:02 30.01547 38.16358 30916 ft 545 kts 79°
2026-04-23 23:02 30.03021 38.24941 30903 ft 545 kts 79°
2026-04-23 23:03 30.04490 38.33527 30915 ft 545 kts 79°
2026-04-23 23:03 30.05944 38.42062 30915 ft 545 kts 79°
2026-04-23 23:04 30.07402 38.50657 30926 ft 546 kts 79°
2026-04-23 23:04 30.08854 38.59255 30927 ft 545 kts 80°
2026-04-23 23:05 30.10301 38.67857 30903 ft 545 kts 80°
2026-04-23 23:05 30.11746 38.76444 30916 ft 545 kts 79°
2026-04-23 23:06 30.13890 38.84823 30922 ft 545 kts 68°
2026-04-23 23:06 30.16771 38.92923 30933 ft 545 kts 67°
2026-04-23 23:07 30.19641 39.01048 30939 ft 546 kts 68°
2026-04-23 23:07 30.22442 39.09151 30942 ft 546 kts 68°
2026-04-23 23:08 30.25239 39.17319 30939 ft 546 kts 68°
2026-04-23 23:08 30.28030 39.25480 30967 ft 545 kts 68°
2026-04-23 23:09 30.30816 39.33636 30962 ft 545 kts 68°
2026-04-23 23:09 30.33596 39.41791 30960 ft 544 kts 68°
2026-04-23 23:10 30.35901 39.48569 30963 ft 544 kts 68°
2026-04-23 23:10 30.38664 39.56712 30989 ft 544 kts 68°
2026-04-23 23:11 30.41880 39.66210 30975 ft 545 kts 68°
2026-04-23 23:11 30.44643 39.74385 30982 ft 545 kts 68°
2026-04-23 23:12 30.46959 39.81251 30965 ft 546 kts 68°
2026-04-23 23:12 30.49701 39.89401 30987 ft 547 kts 68°
2026-04-23 23:13 30.52460 39.97625 30978 ft 548 kts 68°
2026-04-23 23:13 30.55221 40.05874 30955 ft 548 kts 68°
2026-04-23 23:14 30.57977 40.14125 30966 ft 549 kts 68°
2026-04-23 23:14 30.60731 40.22393 30975 ft 549 kts 68°
2026-04-23 23:15 30.63473 40.30658 30950 ft 548 kts 69°
2026-04-23 23:15 30.66207 40.38921 30964 ft 548 kts 69°
2026-04-23 23:16 30.68934 40.47185 30980 ft 547 kts 68°
2026-04-23 23:16 30.71652 40.55441 30949 ft 547 kts 69°
2026-04-23 23:17 30.74366 40.63704 30956 ft 547 kts 69°
2026-04-23 23:17 30.77055 40.71914 30949 ft 547 kts 69°
2026-04-23 23:18 30.79756 40.80181 30956 ft 547 kts 69°
2026-04-23 23:18 30.82451 40.88448 30934 ft 547 kts 69°
2026-04-23 23:19 30.85140 40.96718 30910 ft 546 kts 69°
2026-04-23 23:19 30.87823 41.04994 30913 ft 546 kts 69°
2026-04-23 23:20 30.90510 41.13274 30900 ft 547 kts 68°
2026-04-23 23:20 30.93762 41.21276 30935 ft 546 kts 62°
2026-04-23 23:21 30.97227 41.29090 30934 ft 547 kts 62°
2026-04-23 23:21 31.00698 41.37008 30935 ft 549 kts 62°
2026-04-23 23:22 31.04134 41.44962 30928 ft 549 kts 62°
2026-04-23 23:22 31.07557 41.52921 30930 ft 549 kts 62°
2026-04-23 23:23 31.10980 41.60891 30930 ft 549 kts 62°
2026-04-23 23:23 31.14397 41.68856 30926 ft 549 kts 62°
2026-04-23 23:24 31.17810 41.76829 30921 ft 548 kts 62°
2026-04-23 23:24 31.21215 41.84799 30941 ft 548 kts 62°
2026-04-23 23:25 31.24638 41.92758 30922 ft 547 kts 62°
2026-04-23 23:25 31.28066 42.00697 30896 ft 547 kts 62°
2026-04-23 23:26 31.31486 42.08643 30911 ft 547 kts 62°
2026-04-23 23:26 31.34894 42.16593 30926 ft 547 kts 62°
2026-04-23 23:27 31.38280 42.24511 30907 ft 547 kts 62°
2026-04-23 23:27 31.41679 42.32476 30915 ft 547 kts 62°
2026-04-23 23:28 31.45084 42.40469 30929 ft 548 kts 62°
2026-04-23 23:28 31.48478 42.48458 30913 ft 548 kts 63°
2026-04-23 23:29 31.51872 42.56460 30914 ft 548 kts 63°
2026-04-23 23:29 31.55257 42.64464 30911 ft 548 kts 63°
2026-04-23 23:30 31.58643 42.72483 30920 ft 548 kts 63°
2026-04-23 23:30 31.62015 42.80490 30918 ft 547 kts 63°
2026-04-23 23:31 31.65382 42.88500 30930 ft 547 kts 63°
2026-04-23 23:31 31.68739 42.96507 30916 ft 546 kts 63°
2026-04-23 23:32 31.72057 43.04469 30903 ft 546 kts 63°
2026-04-23 23:32 31.75345 43.12493 30930 ft 545 kts 63°
2026-04-23 23:33 31.78629 43.20530 30918 ft 545 kts 63°
2026-04-23 23:33 31.81915 43.28567 30916 ft 545 kts 63°
2026-04-23 23:34 31.85196 43.36618 30934 ft 546 kts 64°
2026-04-23 23:34 31.88456 43.44691 30913 ft 546 kts 64°
2026-04-23 23:35 31.91711 43.52779 30928 ft 547 kts 64°
2026-04-23 23:35 31.94945 43.60825 30929 ft 548 kts 64°
2026-04-23 23:36 31.98208 43.68957 30920 ft 549 kts 64°
2026-04-23 23:36 32.01491 43.77158 30931 ft 550 kts 64°
2026-04-23 23:37 32.04730 43.85268 30922 ft 551 kts 64°
2026-04-23 23:37 32.07992 43.93444 30928 ft 551 kts 64°
2026-04-23 23:38 32.11256 44.01634 30936 ft 552 kts 64°
2026-04-23 23:38 32.14518 44.09840 30943 ft 552 kts 64°
2026-04-23 23:39 32.17772 44.18049 30935 ft 551 kts 64°
2026-04-23 23:39 32.21014 44.26247 30922 ft 551 kts 64°
2026-04-23 23:40 32.24228 44.34392 30940 ft 551 kts 64°
2026-04-23 23:40 32.27457 44.42596 30926 ft 550 kts 64°
2026-04-23 23:41 32.30682 44.50807 30960 ft 551 kts 64°
2026-04-23 23:41 32.33906 44.59037 30936 ft 551 kts 64°
2026-04-23 23:42 32.37378 44.67112 30932 ft 550 kts 57°
2026-04-23 23:42 32.41871 44.74412 30968 ft 547 kts 48°
2026-04-23 23:43 32.46650 44.81438 30941 ft 548 kts 49°
2026-04-23 23:43 32.51392 44.88543 30940 ft 549 kts 49°
2026-04-23 23:44 32.56061 44.95626 30949 ft 549 kts 49°
2026-04-23 23:44 32.60759 45.02765 30935 ft 548 kts 49°
2026-04-23 23:45 32.65454 45.09896 30954 ft 548 kts 49°
2026-04-23 23:45 32.70170 45.17006 30955 ft 548 kts 49°
2026-04-23 23:46 32.74890 45.24120 30958 ft 548 kts 49°
2026-04-23 23:46 32.79604 45.31254 30956 ft 549 kts 49°
2026-04-23 23:47 32.84340 45.38375 30969 ft 548 kts 47°
2026-04-23 23:47 32.89309 45.45230 30953 ft 547 kts 46°
2026-04-23 23:48 32.94277 45.52086 30976 ft 546 kts 46°
2026-04-23 23:48 32.99225 45.58957 30983 ft 546 kts 46°
2026-04-23 23:49 33.06593 45.69219 30964 ft 545 kts 46°
2026-04-23 23:49 33.11516 45.76089 30970 ft 545 kts 46°
2026-04-23 23:50 33.16433 45.82962 30989 ft 544 kts 46°
2026-04-23 23:50 33.21349 45.89848 30973 ft 545 kts 46°
2026-04-23 23:51 33.26265 45.96745 31001 ft 545 kts 46°
2026-04-23 23:51 33.31176 46.03652 30996 ft 545 kts 46°
2026-04-23 23:52 33.36085 46.10568 31033 ft 545 kts 46°
2026-04-23 23:52 33.40932 46.17443 31091 ft 544 kts 47°
2026-04-23 23:53 33.45793 46.24364 31103 ft 542 kts 47°
2026-04-23 23:53 33.50646 46.31279 31115 ft 542 kts 47°
2026-04-23 23:54 33.55496 46.38204 31105 ft 542 kts 47°
2026-04-23 23:54 33.60195 46.45276 31119 ft 543 kts 51°
2026-04-23 23:55 33.64635 46.52618 31107 ft 544 kts 52°
2026-04-23 23:55 33.69056 46.59996 31127 ft 544 kts 51°
2026-04-23 23:56 33.73506 46.67354 31125 ft 544 kts 51°
2026-04-23 23:56 33.77966 46.74718 31147 ft 545 kts 51°
2026-04-23 23:57 33.82421 46.82097 31152 ft 545 kts 51°
2026-04-23 23:57 33.86872 46.89488 31151 ft 545 kts 51°
2026-04-23 23:58 33.91286 46.96831 31153 ft 545 kts 51°
2026-04-23 23:58 33.95724 47.04229 31169 ft 544 kts 51°
2026-04-23 23:59 33.99836 47.11877 31149 ft 545 kts 60°
2026-04-23 23:59 34.03304 47.20001 31154 ft 545 kts 62°
2026-04-24 00:00 34.06745 47.28141 31149 ft 544 kts 61°
2026-04-24 00:00 34.10214 47.36248 31150 ft 544 kts 61°
2026-04-24 00:01 34.13122 47.43003 31140 ft 544 kts 61°
2026-04-24 00:01 34.16612 47.51120 31136 ft 545 kts 61°
2026-04-24 00:02 34.20100 47.59264 31140 ft 545 kts 61°
2026-04-24 00:02 34.23579 47.67410 31138 ft 546 kts 61°
2026-04-24 00:03 34.27059 47.75579 31138 ft 546 kts 61°
2026-04-24 00:03 34.30536 47.83755 31129 ft 546 kts 61°
2026-04-24 00:04 34.33997 47.91930 31126 ft 546 kts 61°
2026-04-24 00:04 34.37439 48.00061 31129 ft 546 kts 61°
2026-04-24 00:05 34.40897 48.08248 31133 ft 546 kts 61°
2026-04-24 00:05 34.44350 48.16451 31121 ft 547 kts 61°
2026-04-24 00:06 34.47793 48.24654 31123 ft 546 kts 61°
2026-04-24 00:06 34.51236 48.32871 31110 ft 546 kts 62°
2026-04-24 00:07 34.54669 48.41085 31115 ft 546 kts 62°
2026-04-24 00:07 34.58047 48.49336 31120 ft 547 kts 65°
2026-04-24 00:08 34.60576 48.58047 31116 ft 547 kts 72°
2026-04-24 00:08 34.62785 48.66888 31126 ft 547 kts 72°
2026-04-24 00:09 34.65021 48.75720 31121 ft 547 kts 72°
2026-04-24 00:09 34.67284 48.84508 31112 ft 548 kts 72°
2026-04-24 00:10 34.69567 48.93360 31106 ft 549 kts 72°
2026-04-24 00:10 34.71840 49.02222 31101 ft 549 kts 72°
2026-04-24 00:11 34.74105 49.11093 31099 ft 549 kts 72°
2026-04-24 00:11 34.76361 49.19964 31112 ft 549 kts 72°
2026-04-24 00:12 34.78611 49.28837 31101 ft 549 kts 72°
2026-04-24 00:12 34.80841 49.37659 31105 ft 548 kts 72°
2026-04-24 00:13 34.83070 49.46519 31092 ft 546 kts 72°
2026-04-24 00:13 34.85290 49.55356 31084 ft 545 kts 72°
2026-04-24 00:14 34.87382 49.64225 31102 ft 545 kts 75°
2026-04-24 00:14 34.89153 49.73214 31092 ft 546 kts 76°
2026-04-24 00:15 34.90906 49.82228 31087 ft 548 kts 76°
2026-04-24 00:15 34.92723 49.91267 31068 ft 550 kts 76°
2026-04-24 00:16 34.94557 50.00319 31052 ft 551 kts 76°
2026-04-24 00:16 34.96383 50.09397 31065 ft 551 kts 76°
2026-04-24 00:17 34.98191 50.18433 31026 ft 552 kts 76°
2026-04-24 00:17 35.00003 50.27528 31029 ft 551 kts 76°
2026-04-24 00:18 35.02603 50.36252 31024 ft 546 kts 59°
2026-04-24 00:18 35.06944 50.43756 31015 ft 538 kts 42°
2026-04-24 00:19 35.11976 50.50445 31007 ft 539 kts 56°
2026-04-24 00:19 35.13565 50.54598 31005 ft 542 kts 72°
2026-04-24 00:19 35.14327 50.59093 31003 ft 542 kts 86°
2026-04-24 00:20 35.14255 50.68265 31022 ft 542 kts 92°
2026-04-24 00:20 35.14222 50.77473 31001 ft 546 kts 90°
2026-04-24 00:21 35.14279 50.86785 30993 ft 549 kts 90°
2026-04-24 00:21 35.14333 50.96123 30970 ft 550 kts 90°
2026-04-24 00:22 35.14366 51.05468 30972 ft 549 kts 91°
2026-04-24 00:22 35.14389 51.14786 30971 ft 548 kts 91°
2026-04-24 00:23 35.14279 51.24084 30963 ft 546 kts 95°
2026-04-24 00:23 35.13753 51.33333 30976 ft 545 kts 96°
2026-04-24 00:24 35.13189 51.42575 30967 ft 545 kts 95°
2026-04-24 00:24 35.12652 51.51829 30961 ft 546 kts 95°
2026-04-24 00:25 35.12124 51.61076 30971 ft 546 kts 95°
2026-04-24 00:25 35.11585 51.70345 30958 ft 547 kts 96°
2026-04-24 00:26 35.11038 51.79617 30951 ft 547 kts 96°
2026-04-24 00:26 35.10929 51.88913 30947 ft 549 kts 86°
2026-04-24 00:27 35.12093 51.98110 30952 ft 548 kts 77°
2026-04-24 00:27 35.13808 52.07116 30955 ft 548 kts 76°
2026-04-24 00:28 35.15504 52.16226 30947 ft 549 kts 77°
2026-04-24 00:28 35.17146 52.25342 30941 ft 549 kts 77°
2026-04-24 00:29 35.18769 52.34459 30941 ft 549 kts 77°
2026-04-24 00:29 35.20390 52.43583 30932 ft 549 kts 77°
2026-04-24 00:30 35.22008 52.52713 30945 ft 549 kts 77°
2026-04-24 00:30 35.23616 52.61829 30946 ft 548 kts 77°
2026-04-24 00:31 35.25219 52.70956 30949 ft 548 kts 77°
2026-04-24 00:31 35.26732 52.80094 30935 ft 548 kts 78°
2026-04-24 00:32 35.28138 52.89258 30939 ft 548 kts 79°
2026-04-24 00:32 35.29528 52.98368 30914 ft 548 kts 79°
2026-04-24 00:33 35.30942 53.07538 30933 ft 548 kts 79°
2026-04-24 00:33 35.32359 53.16720 30946 ft 549 kts 79°
2026-04-24 00:34 35.33770 53.25917 30946 ft 550 kts 79°
2026-04-24 00:34 35.35177 53.35140 30944 ft 550 kts 79°
2026-04-24 00:35 35.36574 53.44351 30941 ft 550 kts 79°
2026-04-24 00:35 35.37963 53.53565 30941 ft 550 kts 79°
2026-04-24 00:36 35.39346 53.62783 30937 ft 550 kts 79°
2026-04-24 00:36 35.40712 53.71942 30940 ft 549 kts 79°
2026-04-24 00:37 35.42079 53.81150 30935 ft 549 kts 79°
2026-04-24 00:37 35.43436 53.90347 30933 ft 548 kts 79°
2026-04-24 00:38 35.44787 53.99549 30945 ft 548 kts 79°
2026-04-24 00:38 35.46131 54.08757 30931 ft 548 kts 79°
2026-04-24 00:39 35.47469 54.17974 30938 ft 549 kts 79°
2026-04-24 00:39 35.48801 54.27202 30951 ft 549 kts 79°
2026-04-24 00:40 35.50127 54.36439 30945 ft 550 kts 79°
2026-04-24 00:40 35.51448 54.45697 30939 ft 550 kts 79°
2026-04-24 00:41 35.52761 54.54949 30935 ft 550 kts 79°
2026-04-24 00:41 35.54061 54.64144 30930 ft 550 kts 79°
2026-04-24 00:42 35.55372 54.73395 30936 ft 550 kts 79°
2026-04-24 00:42 35.56679 54.82645 30931 ft 548 kts 79°
2026-04-24 00:43 35.57971 54.91863 30925 ft 547 kts 79°
2026-04-24 00:43 35.59256 55.01072 30928 ft 546 kts 80°
2026-04-24 00:44 35.60527 55.10265 30926 ft 546 kts 80°
2026-04-24 00:44 35.61787 55.19453 30925 ft 545 kts 80°
2026-04-24 00:45 35.63043 55.28630 30928 ft 544 kts 80°
2026-04-24 00:45 35.64288 55.37796 30931 ft 544 kts 80°
2026-04-24 00:46 35.65525 55.46964 30926 ft 544 kts 80°
2026-04-24 00:46 35.66749 55.56090 30943 ft 543 kts 81°
2026-04-24 00:47 35.67973 55.65269 30933 ft 544 kts 81°
2026-04-24 00:47 35.69191 55.74449 30929 ft 543 kts 81°
2026-04-24 00:48 35.70401 55.83630 30935 ft 543 kts 81°
2026-04-24 00:48 35.71603 55.92800 30927 ft 543 kts 81°
2026-04-24 00:49 35.72597 56.00432 30924 ft 543 kts 81°
2026-04-24 00:49 35.73784 56.09599 30928 ft 542 kts 81°
2026-04-24 00:50 35.74965 56.18773 30913 ft 543 kts 81°
2026-04-24 00:50 35.76140 56.27953 30916 ft 543 kts 81°
2026-04-24 00:51 35.77307 56.37135 30932 ft 543 kts 81°
2026-04-24 00:51 35.78472 56.46342 30931 ft 544 kts 81°
2026-04-24 00:52 35.79640 56.55553 30930 ft 544 kts 81°
2026-04-24 00:52 35.80804 56.64757 30932 ft 544 kts 81°
2026-04-24 00:53 35.81961 56.73978 30937 ft 545 kts 81°
2026-04-24 00:53 35.83111 56.83202 30937 ft 545 kts 81°
2026-04-24 00:54 35.84253 56.92433 30929 ft 545 kts 81°
2026-04-24 00:54 35.85382 57.01609 30942 ft 545 kts 81°
2026-04-24 00:55 35.86509 57.10840 30936 ft 545 kts 81°
2026-04-24 00:55 35.87629 57.20067 30938 ft 544 kts 81°
2026-04-24 00:56 35.88741 57.29285 30927 ft 544 kts 82°
2026-04-24 00:56 35.89847 57.38518 30938 ft 544 kts 82°
2026-04-24 00:57 35.90948 57.47759 30941 ft 545 kts 82°
2026-04-24 00:58 35.92586 57.61638 30945 ft 546 kts 82°
2026-04-24 00:58 35.93670 57.70900 30949 ft 545 kts 82°
2026-04-24 00:59 35.94738 57.80086 30947 ft 544 kts 82°
2026-04-24 00:59 35.95805 57.89320 30944 ft 542 kts 82°
2026-04-24 01:00 35.96861 57.98526 30949 ft 541 kts 82°
2026-04-24 01:00 35.97908 58.07714 30956 ft 540 kts 82°
2026-04-24 01:01 35.98945 58.16920 31164 ft 543 kts 82°
2026-04-24 01:01 35.99460 58.21546 31469 ft 542 kts 82°
2026-04-24 01:01 35.99969 58.26145 31826 ft 540 kts 82°
2026-04-24 01:01 36.00478 58.30746 32148 ft 539 kts 82°
2026-04-24 01:02 36.00983 58.35328 32418 ft 539 kts 82°
2026-04-24 01:02 36.01488 58.39920 32659 ft 539 kts 82°
2026-04-24 01:02 36.02000 58.44506 32853 ft 539 kts 81°
2026-04-24 01:03 36.03471 58.53610 32964 ft 541 kts 77°
2026-04-24 01:03 36.05170 58.62581 32966 ft 538 kts 76°
2026-04-24 01:04 36.06841 58.71577 32977 ft 536 kts 77°
2026-04-24 01:04 36.08450 58.80576 32980 ft 535 kts 77°
2026-04-24 01:05 36.10035 58.89577 32984 ft 536 kts 77°
2026-04-24 01:05 36.11618 58.98594 32986 ft 537 kts 77°
2026-04-24 01:06 36.13202 59.07631 32990 ft 539 kts 78°
2026-04-24 01:06 36.14784 59.16698 32987 ft 540 kts 78°
2026-04-24 01:07 36.16363 59.25798 32983 ft 541 kts 78°
2026-04-24 01:07 36.17938 59.34904 32990 ft 540 kts 78°
2026-04-24 01:08 36.19500 59.43994 33000 ft 540 kts 78°
2026-04-24 01:08 36.21057 59.53087 32997 ft 539 kts 78°
2026-04-24 01:09 36.22896 59.61985 32997 ft 538 kts 68°
2026-04-24 01:09 36.26260 59.70157 33004 ft 535 kts 54°
2026-04-24 01:10 36.30823 59.77410 33005 ft 534 kts 48°
2026-04-24 01:10 36.35517 59.84561 33000 ft 535 kts 48°
2026-04-24 01:11 36.40180 59.91805 32983 ft 538 kts 49°
2026-04-24 01:11 36.44819 59.99104 32965 ft 539 kts 49°
2026-04-24 01:12 36.49461 60.06429 32948 ft 540 kts 50°
2026-04-24 01:12 36.54107 60.13768 32948 ft 540 kts 49°
2026-04-24 01:13 36.58749 60.21111 32937 ft 540 kts 49°
2026-04-24 01:13 36.63358 60.28418 32929 ft 540 kts 49°
2026-04-24 01:14 36.67981 60.35787 32918 ft 540 kts 50°
2026-04-24 01:14 36.72552 60.43212 32909 ft 540 kts 50°
2026-04-24 01:15 36.77105 60.50648 32914 ft 539 kts 50°
2026-04-24 01:15 36.81658 60.58079 32908 ft 539 kts 50°
2026-04-24 01:16 36.86206 60.65507 32921 ft 538 kts 50°
2026-04-24 01:16 36.90743 60.72935 32907 ft 538 kts 50°
2026-04-24 01:17 36.95277 60.80377 32909 ft 538 kts 50°
2026-04-24 01:17 36.99810 60.87813 32903 ft 538 kts 50°
2026-04-24 01:18 37.04372 60.95228 32905 ft 538 kts 50°
2026-04-24 01:18 37.08902 61.02603 32908 ft 538 kts 50°
2026-04-24 01:19 37.13455 61.10048 32903 ft 538 kts 50°
2026-04-24 01:19 37.18008 61.17511 32910 ft 539 kts 50°
2026-04-24 01:20 37.22570 61.24982 32910 ft 540 kts 50°
2026-04-24 01:20 37.27193 61.32411 32908 ft 540 kts 50°
2026-04-24 01:21 37.31826 61.39838 32911 ft 540 kts 50°
2026-04-24 01:21 37.36444 61.47283 32911 ft 539 kts 50°
2026-04-24 01:22 37.41041 61.54727 32909 ft 538 kts 50°
2026-04-24 01:22 37.45603 61.62131 32917 ft 538 kts 50°
2026-04-24 01:23 37.50181 61.69574 32919 ft 537 kts 50°
2026-04-24 01:23 37.54753 61.77025 32920 ft 537 kts 50°
2026-04-24 01:24 37.59313 61.84494 32921 ft 538 kts 52°
2026-04-24 01:24 37.63176 61.92581 32911 ft 540 kts 63°
2026-04-24 01:25 37.65967 62.01382 32922 ft 540 kts 70°
2026-04-24 01:25 37.68549 62.10302 32918 ft 541 kts 70°
2026-04-24 01:26 37.71147 62.19176 32921 ft 542 kts 69°
2026-04-24 01:26 37.73792 62.28110 32930 ft 543 kts 69°
2026-04-24 01:27 37.76443 62.37053 32920 ft 543 kts 69°
2026-04-24 01:27 37.79083 62.45997 32925 ft 543 kts 69°
2026-04-24 01:28 37.81713 62.54949 32929 ft 543 kts 70°
2026-04-24 01:28 37.84331 62.63890 32923 ft 542 kts 70°
2026-04-24 01:29 37.86938 62.72823 32923 ft 541 kts 70°
2026-04-24 01:29 37.89536 62.81755 32928 ft 540 kts 70°
2026-04-24 01:30 37.92123 62.90680 32931 ft 540 kts 70°
2026-04-24 01:30 37.94704 62.99610 32931 ft 539 kts 70°
2026-04-24 01:31 37.97259 63.08483 32933 ft 539 kts 70°
2026-04-24 01:31 37.99824 63.17416 32925 ft 539 kts 70°
2026-04-24 01:32 38.02381 63.26356 32936 ft 540 kts 70°
2026-04-24 01:32 38.04937 63.35320 32932 ft 540 kts 70°
2026-04-24 01:33 38.07487 63.44292 32933 ft 541 kts 70°
2026-04-24 01:33 38.10033 63.53280 32938 ft 541 kts 70°
2026-04-24 01:34 38.12573 63.62280 32938 ft 541 kts 70°
2026-04-24 01:34 38.15102 63.71272 32936 ft 541 kts 70°
2026-04-24 01:35 38.17629 63.80284 32943 ft 541 kts 71°
2026-04-24 01:35 38.20129 63.89233 32943 ft 540 kts 71°
2026-04-24 01:36 38.22634 63.98228 32941 ft 540 kts 71°
2026-04-24 01:36 38.25134 64.07239 32944 ft 540 kts 71°
2026-04-24 01:37 38.27625 64.16248 32951 ft 540 kts 71°
2026-04-24 01:37 38.30113 64.25276 32955 ft 540 kts 71°
2026-04-24 01:38 38.32596 64.34317 32951 ft 541 kts 71°
2026-04-24 01:38 38.35071 64.43359 32956 ft 541 kts 71°
2026-04-24 01:39 38.37542 64.52423 32958 ft 541 kts 71°
2026-04-24 01:39 38.39991 64.61434 32966 ft 541 kts 71°
2026-04-24 01:40 38.42450 64.70515 32963 ft 541 kts 71°
2026-04-24 01:40 38.44488 64.78065 32972 ft 541 kts 71°
2026-04-24 01:41 38.46932 64.87150 32964 ft 541 kts 71°
2026-04-24 01:41 38.49367 64.96231 32968 ft 541 kts 71°
2026-04-24 01:42 38.51808 65.05329 32973 ft 541 kts 70°
2026-04-24 01:42 38.54965 65.14027 32976 ft 540 kts 59°
2026-04-24 01:43 38.59104 65.21997 32986 ft 538 kts 54°
2026-04-24 01:43 38.63357 65.29885 32966 ft 539 kts 54°
2026-04-24 01:44 38.67570 65.37808 32988 ft 538 kts 54°
2026-04-24 01:44 38.71743 65.45752 32968 ft 537 kts 55°
2026-04-24 01:45 38.75893 65.53688 32970 ft 535 kts 55°
2026-04-24 01:45 38.80002 65.61558 32974 ft 534 kts 55°
2026-04-24 01:46 38.84130 65.69477 32963 ft 533 kts 55°
2026-04-24 01:46 38.88246 65.77392 32963 ft 533 kts 55°
2026-04-24 01:47 38.92353 65.85308 32974 ft 533 kts 55°
2026-04-24 01:47 38.96455 65.93236 32966 ft 533 kts 55°
2026-04-24 01:48 39.00557 66.01184 32976 ft 533 kts 55°
2026-04-24 01:48 39.04652 66.09136 32979 ft 533 kts 55°
2026-04-24 01:49 39.08740 66.17095 32981 ft 533 kts 55°
2026-04-24 01:49 39.12816 66.25051 32984 ft 532 kts 56°
2026-04-24 01:50 39.16885 66.33012 32988 ft 531 kts 56°
2026-04-24 01:50 39.20944 66.40974 32987 ft 531 kts 56°
2026-04-24 01:51 39.24995 66.48939 32988 ft 531 kts 56°
2026-04-24 01:51 39.29037 66.56909 32998 ft 531 kts 56°
2026-04-24 01:52 39.33077 66.64892 33006 ft 531 kts 56°
2026-04-24 01:52 39.37107 66.72877 33000 ft 531 kts 56°
2026-04-24 01:53 39.41137 66.80882 33021 ft 531 kts 56°
2026-04-24 01:53 39.45132 66.88836 33014 ft 531 kts 56°
2026-04-24 01:54 39.49143 66.96843 33018 ft 529 kts 56°
2026-04-24 01:54 39.53143 67.04849 33023 ft 529 kts 56°
2026-04-24 01:55 39.57132 67.12854 33024 ft 529 kts 56°
2026-04-24 01:55 39.61119 67.20872 33027 ft 529 kts 56°
2026-04-24 01:56 39.65099 67.28898 33025 ft 529 kts 56°
2026-04-24 01:56 39.69046 67.36878 33032 ft 529 kts 56°
2026-04-24 01:57 39.73017 67.44927 33038 ft 529 kts 56°
2026-04-24 01:57 39.76986 67.52995 33040 ft 529 kts 56°
2026-04-24 01:58 39.80961 67.61043 33033 ft 529 kts 54°
2026-04-24 01:58 39.85554 67.68478 33033 ft 526 kts 46°
2026-04-24 01:59 39.90429 67.75563 33036 ft 526 kts 46°
2026-04-24 01:59 39.95293 67.82688 33024 ft 526 kts 46°
2026-04-24 02:00 40.00118 67.89852 33028 ft 526 kts 47°
2026-04-24 02:00 40.04928 67.97036 33057 ft 526 kts 47°
2026-04-24 02:01 40.09739 68.04239 33041 ft 526 kts 47°
2026-04-24 02:01 40.14548 68.11448 33030 ft 526 kts 47°
2026-04-24 02:02 40.19356 68.18672 33029 ft 526 kts 47°
2026-04-24 02:02 40.24156 68.25901 33024 ft 526 kts 47°
2026-04-24 02:03 40.31317 68.36717 33027 ft 526 kts 47°
2026-04-24 02:03 40.36113 68.43983 33024 ft 526 kts 47°
2026-04-24 02:04 40.40899 68.51251 33024 ft 526 kts 47°
2026-04-24 02:04 40.45679 68.58528 33024 ft 527 kts 47°
2026-04-24 02:05 40.50467 68.65833 33031 ft 528 kts 47°
2026-04-24 02:05 40.55235 68.73175 33030 ft 529 kts 50°
2026-04-24 02:06 40.59303 68.81264 33028 ft 531 kts 62°
2026-04-24 02:06 40.62459 68.90051 33021 ft 532 kts 65°
2026-04-24 02:07 40.65548 68.98826 33041 ft 532 kts 64°
2026-04-24 02:07 40.68707 69.07649 33035 ft 533 kts 64°
2026-04-24 02:08 40.71884 69.16482 33036 ft 533 kts 64°
2026-04-24 02:08 40.75050 69.25321 33031 ft 533 kts 64°
2026-04-24 02:09 40.78207 69.34170 33037 ft 533 kts 64°
2026-04-24 02:09 40.81357 69.43024 33049 ft 532 kts 64°
2026-04-24 02:10 40.84477 69.51813 33046 ft 532 kts 64°
2026-04-24 02:10 40.87613 69.60673 33053 ft 532 kts 65°
2026-04-24 02:11 40.90738 69.69537 33069 ft 532 kts 65°
2026-04-24 02:11 40.93862 69.78421 33066 ft 533 kts 65°
2026-04-24 02:12 40.96980 69.87319 33073 ft 533 kts 65°
2026-04-24 02:12 41.00095 69.96232 33089 ft 533 kts 65°
2026-04-24 02:13 41.03202 70.05157 33092 ft 533 kts 65°
2026-04-24 02:13 41.06304 70.14091 33104 ft 534 kts 65°
2026-04-24 02:14 41.09038 70.23159 33114 ft 533 kts 75°
2026-04-24 02:14 41.10559 70.32740 33081 ft 530 kts 86°
2026-04-24 02:15 41.11225 70.42471 33108 ft 530 kts 87°
2026-04-24 02:15 41.11887 70.52210 33124 ft 531 kts 86°
2026-04-24 02:16 41.12604 70.61968 33124 ft 532 kts 86°
2026-04-24 02:16 41.13320 70.71732 33126 ft 532 kts 86°
2026-04-24 02:17 41.14002 70.81513 33108 ft 533 kts 87°
2026-04-24 02:17 41.14665 70.91311 33088 ft 532 kts 87°
2026-04-24 02:18 41.15324 71.01095 33113 ft 532 kts 87°
2026-04-24 02:18 41.15973 71.10858 33118 ft 531 kts 87°
2026-04-24 02:19 41.16615 71.20562 33094 ft 531 kts 87°
2026-04-24 02:19 41.17250 71.30321 33107 ft 531 kts 88°
2026-04-24 02:20 41.17875 71.40077 33086 ft 531 kts 88°
2026-04-24 02:20 41.18492 71.49837 33107 ft 530 kts 88°
2026-04-24 02:21 41.19101 71.59591 33097 ft 530 kts 88°
2026-04-24 02:21 41.19703 71.69363 33103 ft 530 kts 88°
2026-04-24 02:22 41.20297 71.79127 33107 ft 531 kts 88°
2026-04-24 02:22 41.20873 71.88906 33110 ft 531 kts 88°
2026-04-24 02:23 41.21432 71.98616 33108 ft 530 kts 89°
2026-04-24 02:23 41.21987 72.08378 33116 ft 530 kts 89°
2026-04-24 02:24 41.22537 72.18154 33117 ft 530 kts 89°
2026-04-24 02:24 41.23088 72.27913 33113 ft 530 kts 89°
2026-04-24 02:25 41.23651 72.37669 33120 ft 529 kts 89°
2026-04-24 02:25 41.24203 72.47412 33134 ft 529 kts 89°
2026-04-24 02:26 41.24745 72.57157 33135 ft 529 kts 89°
2026-04-24 02:26 41.25271 72.66900 33127 ft 528 kts 89°
2026-04-24 02:27 41.25775 72.76640 33135 ft 528 kts 90°
2026-04-24 02:27 41.26272 72.86375 33148 ft 528 kts 90°
2026-04-24 02:28 41.26762 72.96108 33133 ft 527 kts 90°
2026-04-24 02:28 41.27241 73.05771 33149 ft 527 kts 90°
2026-04-24 02:29 41.27715 73.15488 33158 ft 527 kts 90°
2026-04-24 02:29 41.28181 73.25211 33162 ft 527 kts 90°
2026-04-24 02:30 41.28565 73.33363 33154 ft 527 kts 91°
2026-04-24 02:30 41.29014 73.43097 33151 ft 527 kts 91°
2026-04-24 02:31 41.29459 73.52820 33173 ft 527 kts 91°
2026-04-24 02:31 41.29893 73.62546 33172 ft 527 kts 91°
2026-04-24 02:32 41.30314 73.72203 33160 ft 525 kts 92°
2026-04-24 02:32 41.30733 73.81894 33160 ft 524 kts 92°
2026-04-24 02:33 41.31139 73.91575 33151 ft 524 kts 92°
2026-04-24 02:33 41.31541 74.01257 33144 ft 525 kts 92°
2026-04-24 02:34 41.32166 74.10962 33149 ft 527 kts 90°
2026-04-24 02:34 41.32929 74.20661 33148 ft 527 kts 90°
2026-04-24 02:35 41.33654 74.30369 33146 ft 528 kts 91°
2026-04-24 02:35 41.34333 74.40093 33131 ft 528 kts 91°
2026-04-24 02:36 41.34999 74.49823 33116 ft 527 kts 91°
2026-04-24 02:36 41.35657 74.59479 33143 ft 526 kts 91°
2026-04-24 02:37 41.36303 74.69173 33115 ft 525 kts 91°
2026-04-24 02:37 41.36945 74.78837 33143 ft 524 kts 91°
2026-04-24 02:38 41.37579 74.88503 33138 ft 524 kts 91°
2026-04-24 02:38 41.38206 74.98154 33156 ft 521 kts 92°
2026-04-24 02:39 41.38821 75.07772 33135 ft 521 kts 91°
2026-04-24 02:39 41.39431 75.17390 33146 ft 521 kts 91°
2026-04-24 02:40 41.40030 75.27008 33151 ft 521 kts 91°
2026-04-24 02:40 41.40622 75.36642 33141 ft 522 kts 92°
2026-04-24 02:41 41.41209 75.46311 33136 ft 524 kts 91°
2026-04-24 02:41 41.41789 75.55995 33138 ft 525 kts 91°
2026-04-24 02:42 41.42363 75.65693 33131 ft 525 kts 91°
2026-04-24 02:42 41.42928 75.75382 33131 ft 524 kts 91°
2026-04-24 02:43 41.43486 75.85062 33115 ft 523 kts 91°
2026-04-24 02:43 41.44030 75.94667 33127 ft 524 kts 91°
2026-04-24 02:44 41.44574 76.04380 33124 ft 525 kts 91°
2026-04-24 02:44 41.45112 76.14091 33129 ft 526 kts 91°
2026-04-24 02:45 41.45641 76.23807 33128 ft 525 kts 91°
2026-04-24 02:45 41.46161 76.33510 33131 ft 524 kts 91°
2026-04-24 02:46 41.46671 76.43189 33126 ft 523 kts 91°
2026-04-24 02:46 41.47172 76.52851 33100 ft 522 kts 91°
2026-04-24 02:47 41.47658 76.62405 33163 ft 519 kts 91°
2026-04-24 02:47 41.48140 76.72035 33144 ft 521 kts 91°
2026-04-24 02:48 41.48616 76.81696 33149 ft 522 kts 91°
2026-04-24 02:48 41.49086 76.91362 33157 ft 522 kts 91°
2026-04-24 02:49 41.49546 77.01042 33128 ft 522 kts 91°
2026-04-24 02:49 41.49997 77.10696 33170 ft 522 kts 91°
2026-04-24 02:50 41.50441 77.20356 33174 ft 521 kts 91°
2026-04-24 02:50 41.50876 77.30000 33184 ft 520 kts 91°
2026-04-24 02:51 41.51302 77.39619 33184 ft 519 kts 91°
2026-04-24 02:51 41.51717 77.49172 33180 ft 519 kts 91°
2026-04-24 02:52 41.52126 77.58769 33183 ft 517 kts 91°
2026-04-24 02:52 41.52526 77.68358 33183 ft 517 kts 91°
2026-04-24 02:53 41.52917 77.77957 33186 ft 518 kts 91°
2026-04-24 02:53 41.53298 77.87560 33187 ft 518 kts 91°
2026-04-24 02:54 41.53678 77.97164 33172 ft 519 kts 92°
2026-04-24 02:54 41.54049 78.06798 33182 ft 520 kts 92°
2026-04-24 02:55 41.54412 78.16449 33194 ft 522 kts 92°
2026-04-24 02:55 41.54766 78.26137 33173 ft 522 kts 92°
2026-04-24 02:56 41.55114 78.35808 33187 ft 521 kts 92°
2026-04-24 02:56 41.55449 78.45404 33165 ft 520 kts 92°
2026-04-24 02:57 41.55780 78.55036 33173 ft 519 kts 92°
2026-04-24 02:57 41.56105 78.64650 33167 ft 518 kts 92°
2026-04-24 02:58 41.56410 78.74262 33160 ft 517 kts 92°
2026-04-24 02:58 41.56715 78.83851 33147 ft 516 kts 92°
2026-04-24 02:59 41.57107 78.93451 33132 ft 519 kts 91°
2026-04-24 02:59 41.57552 79.03075 33086 ft 519 kts 91°
2026-04-24 03:00 41.57970 79.12690 33114 ft 520 kts 91°
2026-04-24 03:00 41.58374 79.22362 33083 ft 522 kts 91°
2026-04-24 03:01 41.58770 79.32065 33051 ft 524 kts 91°
2026-04-24 03:01 41.59158 79.41784 33055 ft 523 kts 91°
2026-04-24 03:02 41.59537 79.51449 33029 ft 520 kts 91°
2026-04-24 03:02 41.59902 79.61011 33017 ft 518 kts 91°
2026-04-24 03:03 41.60263 79.70676 33026 ft 517 kts 91°
2026-04-24 03:03 41.60611 79.80237 33022 ft 518 kts 91°
2026-04-24 03:04 41.60956 79.89867 33053 ft 519 kts 91°
2026-04-24 03:04 41.61292 79.99510 33054 ft 520 kts 91°
2026-04-24 03:05 41.61621 80.09170 33055 ft 521 kts 91°
2026-04-24 03:05 41.61943 80.18851 33042 ft 521 kts 91°
2026-04-24 03:06 41.62256 80.28528 33060 ft 522 kts 91°
2026-04-24 03:06 41.62562 80.38231 33008 ft 522 kts 91°
2026-04-24 03:07 41.62857 80.47869 33008 ft 523 kts 91°
2026-04-24 03:07 41.63148 80.57580 33004 ft 522 kts 91°
2026-04-24 03:08 41.63567 80.72131 32988 ft 522 kts 91°
2026-04-24 03:09 41.63835 80.81806 32986 ft 520 kts 91°
2026-04-24 03:09 41.64095 80.91459 32966 ft 519 kts 90°
2026-04-24 03:10 41.64348 81.01106 32974 ft 519 kts 91°
2026-04-24 03:10 41.64594 81.10749 32969 ft 519 kts 91°
2026-04-24 03:11 41.64835 81.20409 32964 ft 521 kts 90°
2026-04-24 03:11 41.65071 81.30117 32951 ft 523 kts 90°
2026-04-24 03:12 41.65298 81.39877 32961 ft 527 kts 90°
2026-04-24 03:12 41.65519 81.49701 32960 ft 530 kts 91°
2026-04-24 03:13 41.65732 81.59570 32949 ft 531 kts 91°
2026-04-24 03:13 41.65936 81.69389 32928 ft 532 kts 90°
2026-04-24 03:14 41.66133 81.79267 32942 ft 531 kts 91°
2026-04-24 03:14 41.66321 81.89123 32939 ft 530 kts 91°
2026-04-24 03:15 41.66500 81.98976 32930 ft 529 kts 91°
2026-04-24 03:15 41.66671 82.08809 32935 ft 528 kts 91°
2026-04-24 03:16 41.66833 82.18640 32927 ft 528 kts 91°
2026-04-24 03:16 41.66961 82.26808 32930 ft 528 kts 91°
2026-04-24 03:17 41.67106 82.36628 32929 ft 528 kts 91°
2026-04-24 03:17 41.67243 82.46456 32915 ft 529 kts 91°
2026-04-24 03:18 41.67375 82.56298 32927 ft 529 kts 91°
2026-04-24 03:18 41.67498 82.66142 32923 ft 529 kts 91°
2026-04-24 03:19 41.67616 82.75970 32934 ft 528 kts 90°
2026-04-24 03:19 41.67994 82.80862 32912 ft 530 kts 79°
2026-04-24 03:19 41.68948 82.85627 32933 ft 531 kts 71°
2026-04-24 03:20 41.72220 82.94441 32933 ft 530 kts 56°
2026-04-24 03:20 41.76237 83.02751 32931 ft 532 kts 56°
2026-04-24 03:21 41.80207 83.11050 32938 ft 533 kts 57°
2026-04-24 03:21 41.84143 83.19465 32931 ft 533 kts 57°
2026-04-24 03:22 41.88054 83.27911 32938 ft 532 kts 57°
2026-04-24 03:22 41.91951 83.36351 32942 ft 531 kts 57°
2026-04-24 03:23 41.95834 83.44766 32956 ft 529 kts 57°
2026-04-24 03:23 41.99705 83.53173 32964 ft 529 kts 57°
2026-04-24 03:24 42.03573 83.61597 32997 ft 529 kts 57°
2026-04-24 03:24 42.07433 83.70033 33001 ft 529 kts 57°
2026-04-24 03:25 42.11291 83.78492 33000 ft 530 kts 57°
2026-04-24 03:25 42.15147 83.86966 33026 ft 531 kts 57°
2026-04-24 03:26 42.19002 83.95447 33037 ft 530 kts 57°
2026-04-24 03:26 42.22929 84.03855 33052 ft 530 kts 54°
2026-04-24 03:27 42.27098 84.12072 33059 ft 531 kts 53°
2026-04-24 03:27 42.31312 84.20276 33069 ft 532 kts 53°
2026-04-24 03:28 42.35475 84.28430 33063 ft 528 kts 53°
2026-04-24 03:28 42.39591 84.36623 33084 ft 526 kts 53°
2026-04-24 03:29 42.43697 84.44811 33124 ft 528 kts 53°
2026-04-24 03:29 42.47843 84.53095 33081 ft 534 kts 53°
2026-04-24 03:30 42.52014 84.61437 33125 ft 536 kts 53°
2026-04-24 03:30 42.56200 84.69841 33113 ft 537 kts 53°
2026-04-24 03:31 42.60347 84.78187 33120 ft 537 kts 53°
2026-04-24 03:31 42.64508 84.86595 33122 ft 535 kts 53°
2026-04-24 03:32 42.68647 84.94975 33126 ft 532 kts 53°
2026-04-24 03:32 42.72755 85.03328 33149 ft 531 kts 53°
2026-04-24 03:33 42.76864 85.11693 33146 ft 532 kts 53°
2026-04-24 03:33 42.80978 85.20079 33147 ft 532 kts 53°
2026-04-24 03:34 42.85059 85.28430 33151 ft 533 kts 53°
2026-04-24 03:34 42.89160 85.36854 33151 ft 533 kts 53°
2026-04-24 03:35 42.93258 85.45297 33154 ft 534 kts 53°
2026-04-24 03:35 42.97358 85.53766 33159 ft 535 kts 53°
2026-04-24 03:36 43.01455 85.62253 33156 ft 535 kts 53°
2026-04-24 03:36 43.05544 85.70745 33143 ft 535 kts 53°
2026-04-24 03:37 43.09622 85.79246 33137 ft 534 kts 53°
2026-04-24 03:37 43.13693 85.87741 33153 ft 533 kts 53°
2026-04-24 03:38 43.17753 85.96244 33142 ft 533 kts 53°
2026-04-24 03:38 43.21835 86.04690 33174 ft 532 kts 53°
2026-04-24 03:39 43.25936 86.13063 33165 ft 533 kts 53°
2026-04-24 03:39 43.30050 86.21530 33173 ft 533 kts 53°
2026-04-24 03:40 43.34166 86.30012 33158 ft 533 kts 53°
2026-04-24 03:40 43.38261 86.38481 33216 ft 531 kts 53°
2026-04-24 03:41 43.42361 86.46942 33188 ft 529 kts 52°
2026-04-24 03:41 43.46443 86.55360 33162 ft 530 kts 53°
2026-04-24 03:42 43.50540 86.63796 33208 ft 528 kts 52°
2026-04-24 03:42 43.54618 86.72263 33163 ft 531 kts 53°
2026-04-24 03:43 43.58688 86.80791 33150 ft 533 kts 53°
2026-04-24 03:43 43.62721 86.89320 33162 ft 528 kts 53°
2026-04-24 03:44 43.66739 86.97809 33137 ft 527 kts 53°
2026-04-24 03:44 43.70739 87.06290 33127 ft 526 kts 53°
2026-04-24 03:45 43.74729 87.14770 33122 ft 525 kts 53°
2026-04-24 03:45 43.78664 87.23209 33133 ft 525 kts 53°
2026-04-24 03:46 43.82623 87.31729 33128 ft 526 kts 53°
2026-04-24 03:46 43.86581 87.40269 33133 ft 526 kts 53°
2026-04-24 03:47 43.90532 87.48812 33132 ft 527 kts 53°
2026-04-24 03:47 43.94737 87.57108 33133 ft 524 kts 48°
2026-04-24 03:48 43.99209 87.65084 33122 ft 524 kts 47°
2026-04-24 03:48 44.03658 87.73109 33124 ft 524 kts 49°
2026-04-24 03:49 44.08055 87.81206 33100 ft 524 kts 49°
2026-04-24 03:49 44.12445 87.89315 33092 ft 524 kts 49°
2026-04-24 03:49 44.14414 87.93487 33072 ft 526 kts 62°
2026-04-24 03:50 44.15559 87.98349 33080 ft 532 kts 79°
2026-04-24 03:50 44.15752 88.03505 33099 ft 535 kts 95°
2026-04-24 03:50 44.15040 88.08563 33083 ft 532 kts 110°
2026-04-24 03:51 44.12470 88.18214 33104 ft 533 kts 111°
2026-04-24 03:51 44.09955 88.27963 33113 ft 537 kts 110°
2026-04-24 03:52 44.07502 88.37798 33095 ft 538 kts 110°
2026-04-24 03:52 44.05060 88.47630 33107 ft 538 kts 110°
2026-04-24 03:53 44.02602 88.57446 33105 ft 537 kts 110°
2026-04-24 03:53 44.00138 88.67224 33076 ft 535 kts 110°
2026-04-24 03:54 43.97674 88.76967 33102 ft 535 kts 110°
2026-04-24 03:54 43.95274 88.86658 33081 ft 534 kts 109°
2026-04-24 03:55 43.93066 88.96500 33075 ft 534 kts 108°
2026-04-24 03:55 43.90871 89.06355 33078 ft 534 kts 108°
2026-04-24 03:56 43.88631 89.16179 33075 ft 534 kts 108°
2026-04-24 03:56 43.86366 89.25994 33063 ft 535 kts 108°
2026-04-24 03:57 43.84093 89.35814 33059 ft 535 kts 108°
2026-04-24 03:57 43.81812 89.45640 33059 ft 536 kts 108°
2026-04-24 03:58 43.79533 89.55468 33054 ft 536 kts 108°
2026-04-24 03:58 43.77329 89.65330 33054 ft 536 kts 108°
2026-04-24 03:59 43.75151 89.75119 33049 ft 536 kts 108°
2026-04-24 03:59 43.72932 89.84981 33068 ft 536 kts 108°
2026-04-24 04:00 43.70702 89.94814 33067 ft 536 kts 108°
2026-04-24 04:00 43.68465 90.04647 33067 ft 537 kts 108°
2026-04-24 04:01 43.66266 90.14490 33064 ft 536 kts 107°
2026-04-24 04:01 43.64167 90.24361 33074 ft 536 kts 106°
2026-04-24 04:02 43.62058 90.34249 33041 ft 537 kts 106°
2026-04-24 04:02 43.59933 90.44131 33069 ft 538 kts 106°
2026-04-24 04:03 43.57783 90.54045 33052 ft 540 kts 106°
2026-04-24 04:03 43.55610 90.63977 33020 ft 541 kts 107°
2026-04-24 04:04 43.53436 90.73894 33036 ft 541 kts 107°
2026-04-24 04:04 43.51251 90.83809 33024 ft 540 kts 106°
2026-04-24 04:05 43.49433 90.92032 32999 ft 540 kts 107°
2026-04-24 04:05 43.47239 91.01921 33003 ft 539 kts 107°
2026-04-24 04:06 43.45038 91.11775 33004 ft 538 kts 107°
2026-04-24 04:06 43.42827 91.21627 33001 ft 539 kts 107°
2026-04-24 04:07 43.40609 91.31474 32990 ft 538 kts 106°
2026-04-24 04:07 43.38398 91.41243 32962 ft 539 kts 107°
2026-04-24 04:08 43.36151 91.51062 32969 ft 538 kts 107°
2026-04-24 04:08 43.33894 91.60874 32954 ft 539 kts 106°
2026-04-24 04:09 43.31633 91.70676 32943 ft 538 kts 106°
2026-04-24 04:09 43.29362 91.80486 33252 ft 540 kts 107°
2026-04-24 04:09 43.28223 91.85389 33653 ft 538 kts 107°
2026-04-24 04:10 43.27086 91.90272 34023 ft 535 kts 107°
2026-04-24 04:10 43.25954 91.95125 34315 ft 534 kts 106°
2026-04-24 04:10 43.24818 91.99984 34578 ft 533 kts 106°
2026-04-24 04:11 43.22546 92.09669 34898 ft 535 kts 106°
2026-04-24 04:11 43.21419 92.14459 34953 ft 536 kts 106°
2026-04-24 04:11 43.19129 92.24159 34947 ft 533 kts 106°
2026-04-24 04:12 43.16841 92.33797 34952 ft 531 kts 106°
2026-04-24 04:12 43.14555 92.43400 34943 ft 530 kts 106°
2026-04-24 04:13 43.12256 92.53017 34939 ft 532 kts 106°
2026-04-24 04:13 43.09946 92.62639 34952 ft 533 kts 106°
2026-04-24 04:14 43.07613 92.72305 34943 ft 536 kts 105°
2026-04-24 04:14 43.05268 92.81988 34961 ft 537 kts 105°
2026-04-24 04:15 43.02909 92.91689 34954 ft 539 kts 105°
2026-04-24 04:15 43.00536 93.01400 34959 ft 539 kts 106°
2026-04-24 04:16 42.98166 93.11057 34937 ft 539 kts 105°
2026-04-24 04:16 42.95780 93.20742 34938 ft 538 kts 105°
2026-04-24 04:17 42.93391 93.30403 34943 ft 536 kts 105°
2026-04-24 04:17 42.90998 93.40039 34947 ft 535 kts 105°
2026-04-24 04:18 42.88603 93.49645 34939 ft 535 kts 105°
2026-04-24 04:18 42.86190 93.59237 34944 ft 535 kts 107°
2026-04-24 04:19 42.82880 93.68348 34955 ft 539 kts 120°
2026-04-24 04:19 42.78382 93.76521 34939 ft 540 kts 130°
2026-04-24 04:20 42.73440 93.84238 34929 ft 542 kts 130°
2026-04-24 04:20 42.68487 93.91988 34935 ft 543 kts 130°
2026-04-24 04:21 42.63560 93.99779 34945 ft 544 kts 129°
2026-04-24 04:21 42.58630 94.07591 34931 ft 545 kts 129°
2026-04-24 04:22 42.53687 94.15402 34909 ft 546 kts 129°
2026-04-24 04:22 42.48757 94.23159 34926 ft 546 kts 129°
2026-04-24 04:23 42.43796 94.30948 34923 ft 546 kts 129°
2026-04-24 04:23 42.38833 94.38720 34923 ft 546 kts 129°
2026-04-24 04:24 42.33865 94.46478 34925 ft 545 kts 129°
2026-04-24 04:24 42.28896 94.54218 34925 ft 545 kts 129°
2026-04-24 04:25 42.23921 94.61936 34926 ft 545 kts 129°
2026-04-24 04:25 42.18950 94.69644 34927 ft 544 kts 129°
2026-04-24 04:26 42.14003 94.77294 34932 ft 544 kts 129°
2026-04-24 04:26 42.09021 94.84973 34914 ft 544 kts 129°
2026-04-24 04:27 42.04043 94.92625 34935 ft 543 kts 129°
2026-04-24 04:27 41.99056 95.00265 34955 ft 543 kts 129°
2026-04-24 04:28 41.94078 95.07891 34957 ft 543 kts 129°
2026-04-24 04:28 41.89216 95.15607 34955 ft 537 kts 120°
2026-04-24 04:29 41.87504 95.20014 34969 ft 528 kts 105°
2026-04-24 04:29 41.86481 95.24702 34967 ft 522 kts 95°
2026-04-24 04:29 41.86109 95.29495 34968 ft 511 kts 82°
2026-04-24 04:29 41.86230 95.34256 35024 ft 512 kts 81°
2026-04-24 04:30 41.86461 95.43866 34981 ft 517 kts 82°
2026-04-24 04:30 41.86598 95.53529 34996 ft 518 kts 82°
2026-04-24 04:31 41.86686 95.63116 34984 ft 516 kts 83°
2026-04-24 04:31 41.86765 95.72709 35023 ft 512 kts 83°
2026-04-24 04:32 41.86840 95.82233 35009 ft 508 kts 83°
2026-04-24 04:32 41.86913 95.91677 35014 ft 504 kts 83°
2026-04-24 04:33 41.86977 96.01065 35011 ft 503 kts 83°
2026-04-24 04:33 41.87033 96.10450 35027 ft 503 kts 83°
2026-04-24 04:34 41.87081 96.19841 35017 ft 504 kts 83°
2026-04-24 04:34 41.87150 96.29242 35010 ft 504 kts 83°
2026-04-24 04:35 41.87312 96.38648 35006 ft 505 kts 82°
2026-04-24 04:35 41.87485 96.48069 35023 ft 505 kts 83°
2026-04-24 04:36 41.87637 96.57442 35001 ft 506 kts 83°
2026-04-24 04:36 41.87774 96.66891 34995 ft 506 kts 84°
2026-04-24 04:37 41.87900 96.76331 34992 ft 506 kts 84°
2026-04-24 04:37 41.88018 96.85755 35008 ft 505 kts 84°
2026-04-24 04:38 41.88131 96.95187 34987 ft 505 kts 85°
2026-04-24 04:38 41.88234 97.04604 34987 ft 504 kts 85°
2026-04-24 04:39 41.88330 97.13995 34992 ft 503 kts 85°
2026-04-24 04:39 41.88418 97.23381 34975 ft 503 kts 85°
2026-04-24 04:40 41.88499 97.32700 34975 ft 503 kts 85°
2026-04-24 04:40 41.88572 97.42080 34976 ft 503 kts 85°
2026-04-24 04:41 41.88638 97.51462 34967 ft 503 kts 85°
2026-04-24 04:41 41.88696 97.60846 34988 ft 503 kts 86°
2026-04-24 04:42 41.88746 97.70242 34971 ft 503 kts 86°
2026-04-24 04:42 41.88788 97.79651 34974 ft 503 kts 86°
2026-04-24 04:43 41.88823 97.89055 34965 ft 503 kts 86°
2026-04-24 04:43 41.88850 97.98446 34978 ft 503 kts 86°
2026-04-24 04:44 41.88870 98.07846 34975 ft 504 kts 86°
2026-04-24 04:44 41.88882 98.17263 34968 ft 504 kts 86°
2026-04-24 04:45 41.88886 98.26609 34973 ft 505 kts 86°
2026-04-24 04:45 41.88883 98.36030 34988 ft 505 kts 86°
2026-04-24 04:46 41.88872 98.45469 34982 ft 506 kts 86°
2026-04-24 04:46 41.88853 98.54920 34958 ft 507 kts 86°
2026-04-24 04:47 41.88826 98.64372 34953 ft 506 kts 86°
2026-04-24 04:47 41.88791 98.73817 34967 ft 506 kts 86°
2026-04-24 04:48 41.88749 98.83275 34960 ft 507 kts 86°
2026-04-24 04:48 41.88700 98.92728 34958 ft 507 kts 86°
2026-04-24 04:49 41.88642 99.02191 34955 ft 507 kts 86°
2026-04-24 04:49 41.88576 99.11651 34972 ft 507 kts 86°
2026-04-24 04:50 41.88503 99.21112 34964 ft 507 kts 87°
2026-04-24 04:50 41.88422 99.30511 34958 ft 506 kts 87°
2026-04-24 04:51 41.88333 99.40021 34963 ft 506 kts 87°
2026-04-24 04:51 41.88238 99.49404 34975 ft 506 kts 86°
2026-04-24 04:52 41.88133 99.58856 34960 ft 506 kts 87°
2026-04-24 04:52 41.88022 99.68306 34961 ft 506 kts 87°
2026-04-24 04:53 41.87902 99.77748 34963 ft 506 kts 87°
2026-04-24 04:53 41.87775 99.87182 34979 ft 506 kts 86°
2026-04-24 04:54 41.87664 99.95037 34967 ft 506 kts 86°
2026-04-24 04:54 41.87522 100.04491 34963 ft 506 kts 86°
2026-04-24 04:55 41.87373 100.13931 34967 ft 506 kts 86°
2026-04-24 04:55 41.87216 100.23370 34984 ft 506 kts 86°
2026-04-24 04:56 41.87052 100.32802 34978 ft 506 kts 86°
2026-04-24 04:56 41.86879 100.42239 34972 ft 505 kts 86°
2026-04-24 04:57 41.86699 100.51659 34961 ft 505 kts 86°
2026-04-24 04:57 41.86512 100.61075 34983 ft 505 kts 86°
2026-04-24 04:58 41.86317 100.70484 34968 ft 504 kts 86°
2026-04-24 04:58 41.86116 100.79811 34962 ft 503 kts 86°
2026-04-24 04:59 41.85907 100.89187 34965 ft 503 kts 86°
2026-04-24 04:59 41.85691 100.98553 34965 ft 502 kts 86°
2026-04-24 05:00 41.85467 101.07924 34962 ft 503 kts 86°
2026-04-24 05:00 41.85207 101.17313 34963 ft 505 kts 89°
2026-04-24 05:01 41.83982 101.26661 34962 ft 513 kts 101°
2026-04-24 05:01 41.81616 101.35739 34974 ft 517 kts 106°
2026-04-24 05:02 41.79064 101.44765 34963 ft 518 kts 106°
2026-04-24 05:02 41.76557 101.53736 34961 ft 517 kts 106°
2026-04-24 05:03 41.74059 101.62770 34961 ft 517 kts 106°
2026-04-24 05:03 41.71563 101.71797 34970 ft 517 kts 105°
2026-04-24 05:04 41.69058 101.80821 34964 ft 517 kts 105°
2026-04-24 05:04 41.66547 101.89827 34954 ft 516 kts 105°
2026-04-24 05:05 41.64032 101.98806 34956 ft 515 kts 105°
2026-04-24 05:05 41.61510 102.07779 34975 ft 516 kts 105°
2026-04-24 05:06 41.58984 102.16742 34960 ft 515 kts 105°
2026-04-24 05:06 41.56451 102.25693 34960 ft 515 kts 105°
2026-04-24 05:07 41.53916 102.34623 34957 ft 514 kts 105°
2026-04-24 05:07 41.51371 102.43554 34973 ft 514 kts 104°
2026-04-24 05:08 41.48819 102.52478 34964 ft 515 kts 105°
2026-04-24 05:08 41.46261 102.61400 34953 ft 515 kts 105°
2026-04-24 05:09 41.43697 102.70309 34960 ft 515 kts 105°
2026-04-24 05:09 41.41137 102.79214 34984 ft 515 kts 104°
2026-04-24 05:10 41.38592 102.88080 34952 ft 515 kts 104°
2026-04-24 05:10 41.36027 102.96976 34956 ft 514 kts 104°
2026-04-24 05:11 41.33507 103.05875 34953 ft 513 kts 103°
2026-04-24 05:11 41.31068 103.14773 34992 ft 512 kts 103°
2026-04-24 05:12 41.28626 103.23663 34959 ft 511 kts 103°
2026-04-24 05:12 41.26169 103.32522 34958 ft 510 kts 103°
2026-04-24 05:13 41.22473 103.45757 34966 ft 509 kts 103°
2026-04-24 05:14 41.20006 103.54551 34974 ft 508 kts 103°
2026-04-24 05:14 41.17550 103.63281 34968 ft 507 kts 103°
2026-04-24 05:15 41.15080 103.72031 34958 ft 505 kts 103°
2026-04-24 05:15 41.12610 103.80750 34971 ft 505 kts 103°
2026-04-24 05:16 41.10134 103.89463 34987 ft 505 kts 103°
2026-04-24 05:16 41.07634 103.98231 34970 ft 505 kts 103°
2026-04-24 05:17 41.05161 104.06871 34964 ft 504 kts 103°
2026-04-24 05:17 41.02670 104.15549 34969 ft 504 kts 103°
2026-04-24 05:18 41.00171 104.24229 34993 ft 504 kts 103°
2026-04-24 05:18 40.97702 104.32909 34970 ft 501 kts 101°
2026-04-24 05:19 40.95559 104.41671 34969 ft 499 kts 99°
2026-04-24 05:19 40.93481 104.50426 34968 ft 499 kts 99°
2026-04-24 05:20 40.91384 104.59167 34967 ft 499 kts 100°
2026-04-24 05:20 40.89262 104.67906 34968 ft 499 kts 100°
2026-04-24 05:21 40.87140 104.76580 34968 ft 500 kts 100°
2026-04-24 05:21 40.84997 104.85311 34971 ft 499 kts 100°
2026-04-24 05:22 40.82845 104.94048 34993 ft 500 kts 101°
2026-04-24 05:22 40.80686 105.02786 34972 ft 500 kts 101°
2026-04-24 05:23 40.78521 105.11514 34965 ft 500 kts 101°
2026-04-24 05:23 40.76350 105.20229 34964 ft 500 kts 101°
2026-04-24 05:24 40.74173 105.28943 34997 ft 500 kts 101°
2026-04-24 05:24 40.71987 105.37663 34969 ft 501 kts 101°
2026-04-24 05:25 40.69805 105.46331 34962 ft 502 kts 102°
2026-04-24 05:25 40.67601 105.55055 34964 ft 502 kts 102°
2026-04-24 05:26 40.65389 105.63779 34961 ft 502 kts 102°
2026-04-24 05:26 40.63173 105.72491 34965 ft 502 kts 102°
2026-04-24 05:27 40.60944 105.81212 34952 ft 501 kts 102°
2026-04-24 05:27 40.58715 105.89909 34954 ft 501 kts 102°
2026-04-24 05:28 40.56483 105.98586 34944 ft 501 kts 102°
2026-04-24 05:28 40.54245 106.07256 34945 ft 500 kts 103°
2026-04-24 05:29 40.52005 106.15901 34938 ft 499 kts 103°
2026-04-24 05:29 40.49760 106.24536 34924 ft 499 kts 103°
2026-04-24 05:30 40.47526 106.33101 34928 ft 498 kts 103°
2026-04-24 05:30 40.45274 106.41705 34930 ft 498 kts 104°
2026-04-24 05:31 40.43014 106.50305 34922 ft 498 kts 104°
2026-04-24 05:31 40.40751 106.58889 34915 ft 497 kts 104°
2026-04-24 05:32 40.38485 106.67457 34919 ft 497 kts 104°
2026-04-24 05:32 40.36215 106.76015 34925 ft 497 kts 105°
2026-04-24 05:33 40.33938 106.84565 34906 ft 497 kts 105°
2026-04-24 05:33 40.31835 106.93159 34906 ft 491 kts 97°
2026-04-24 05:34 40.31067 107.01957 34925 ft 482 kts 85°
2026-04-24 05:34 40.31205 107.06321 34937 ft 479 kts 81°
2026-04-24 05:34 40.31710 107.15021 34922 ft 479 kts 81°
2026-04-24 05:35 40.32196 107.23695 34917 ft 480 kts 82°
2026-04-24 05:35 40.32645 107.32437 34918 ft 481 kts 82°
2026-04-24 05:36 40.33075 107.41190 34931 ft 482 kts 82°
2026-04-24 05:36 40.33500 107.49967 34913 ft 482 kts 83°
2026-04-24 05:37 40.33918 107.58747 34911 ft 483 kts 83°
2026-04-24 05:37 40.34330 107.67526 34915 ft 483 kts 83°
2026-04-24 05:38 40.34737 107.76314 34916 ft 483 kts 83°
2026-04-24 05:38 40.35138 107.85111 34911 ft 483 kts 83°
2026-04-24 05:39 40.35530 107.93857 34908 ft 484 kts 83°
2026-04-24 05:39 40.35916 108.02668 34907 ft 484 kts 83°
2026-04-24 05:40 40.36276 108.11485 34903 ft 484 kts 83°
2026-04-24 05:40 40.36625 108.20312 34896 ft 484 kts 83°
2026-04-24 05:41 40.36970 108.29131 34897 ft 484 kts 83°
2026-04-24 05:41 40.37309 108.37934 34898 ft 483 kts 83°
2026-04-24 05:42 40.37642 108.46744 34891 ft 484 kts 84°
2026-04-24 05:42 40.37969 108.55559 34894 ft 485 kts 84°
2026-04-24 05:43 40.38290 108.64396 34882 ft 485 kts 84°
2026-04-24 05:43 40.38551 108.71750 34880 ft 486 kts 84°
2026-04-24 05:44 40.38860 108.80607 34884 ft 486 kts 84°
2026-04-24 05:44 40.39163 108.89492 34876 ft 487 kts 84°
2026-04-24 05:45 40.39458 108.98370 34873 ft 488 kts 85°
2026-04-24 05:45 40.39747 109.07259 34875 ft 488 kts 84°
2026-04-24 05:46 40.40028 109.16092 34872 ft 488 kts 85°
2026-04-24 05:46 40.40305 109.24994 34870 ft 488 kts 85°
2026-04-24 05:47 40.40574 109.33896 34872 ft 488 kts 85°
2026-04-24 05:47 40.40837 109.42802 34871 ft 489 kts 85°
2026-04-24 05:48 40.41093 109.51719 34874 ft 489 kts 85°
2026-04-24 05:48 40.41343 109.60655 34875 ft 490 kts 85°
2026-04-24 05:49 40.41586 109.69596 34875 ft 490 kts 85°
2026-04-24 05:49 40.41822 109.78547 34874 ft 491 kts 85°
2026-04-24 05:50 40.42050 109.87450 34875 ft 492 kts 86°
2026-04-24 05:50 40.42275 109.96422 34882 ft 492 kts 86°
2026-04-24 05:51 40.42313 110.05424 34893 ft 494 kts 89°
2026-04-24 05:51 40.42163 110.14434 34890 ft 494 kts 89°
2026-04-24 05:52 40.42076 110.23444 34894 ft 494 kts 89°
2026-04-24 05:52 40.42022 110.32458 34890 ft 494 kts 89°
2026-04-24 05:53 40.41967 110.41470 34890 ft 494 kts 89°
2026-04-24 05:53 40.41902 110.50488 34896 ft 494 kts 89°
2026-04-24 05:54 40.41826 110.59506 34901 ft 494 kts 89°
2026-04-24 05:54 40.41744 110.68465 34901 ft 494 kts 89°
2026-04-24 05:55 40.41654 110.77494 34901 ft 495 kts 89°
2026-04-24 05:55 40.41557 110.86518 34905 ft 495 kts 89°
2026-04-24 05:56 40.41453 110.95557 34909 ft 495 kts 90°
2026-04-24 05:56 40.41343 111.04588 34908 ft 495 kts 90°
2026-04-24 05:57 40.41225 111.13615 34917 ft 495 kts 90°
2026-04-24 05:57 40.41101 111.22665 34923 ft 495 kts 90°
2026-04-24 05:58 40.40969 111.31704 34922 ft 496 kts 90°
2026-04-24 05:58 40.40829 111.40689 34925 ft 496 kts 90°
2026-04-24 05:59 40.40682 111.49740 34927 ft 496 kts 90°
2026-04-24 05:59 40.40528 111.58805 34929 ft 496 kts 90°
2026-04-24 06:00 40.40366 111.67855 34938 ft 497 kts 90°
2026-04-24 06:00 40.40199 111.76917 34931 ft 497 kts 90°
2026-04-24 06:01 40.40025 111.85980 34937 ft 497 kts 90°
2026-04-24 06:01 40.39793 111.95054 34944 ft 497 kts 90°
2026-04-24 06:02 40.39658 112.04110 34938 ft 497 kts 91°
2026-04-24 06:02 40.39329 112.13098 34942 ft 496 kts 92°
2026-04-24 06:03 40.38984 112.22137 34947 ft 496 kts 92°
2026-04-24 06:03 40.38666 112.31168 34955 ft 495 kts 92°
2026-04-24 06:04 40.38351 112.40193 34951 ft 495 kts 91°
2026-04-24 06:04 40.38512 112.49213 34949 ft 496 kts 90°
2026-04-24 06:05 40.38050 112.58253 34943 ft 497 kts 95°
2026-04-24 06:05 40.37410 112.67294 34942 ft 498 kts 94°
2026-04-24 06:06 40.36813 112.76342 34933 ft 499 kts 94°
2026-04-24 06:06 40.36245 112.85409 34929 ft 499 kts 94°
2026-04-24 06:07 40.35673 112.94479 34927 ft 499 kts 94°
2026-04-24 06:07 40.35094 113.03484 34926 ft 499 kts 94°
2026-04-24 06:08 40.34508 113.12550 34916 ft 499 kts 94°
2026-04-24 06:08 40.33932 113.21612 34913 ft 499 kts 94°
2026-04-24 06:09 40.33318 113.30671 34906 ft 499 kts 95°
2026-04-24 06:09 40.32673 113.39725 34911 ft 499 kts 95°
2026-04-24 06:10 40.32025 113.48774 34922 ft 499 kts 95°
2026-04-24 06:11 40.31046 113.62362 34907 ft 499 kts 95°
2026-04-24 06:11 40.30387 113.71416 34900 ft 499 kts 95°
2026-04-24 06:12 40.29720 113.80460 34905 ft 499 kts 95°
2026-04-24 06:12 40.29045 113.89508 34891 ft 499 kts 95°
2026-04-24 06:13 40.28369 113.98490 34895 ft 499 kts 95°
2026-04-24 06:13 40.27681 114.07543 34889 ft 500 kts 96°
2026-04-24 06:14 40.27153 114.16624 34883 ft 500 kts 93°
2026-04-24 06:14 40.26825 114.25719 34888 ft 500 kts 92°
2026-04-24 06:15 40.26483 114.34833 34880 ft 500 kts 93°
2026-04-24 06:15 40.26096 114.43933 34878 ft 501 kts 93°
2026-04-24 06:16 40.25688 114.53039 34883 ft 501 kts 94°
2026-04-24 06:16 40.25272 114.62139 34878 ft 501 kts 94°
2026-04-24 06:17 40.24854 114.71182 34870 ft 501 kts 94°
2026-04-24 06:17 40.24426 114.80294 34869 ft 502 kts 94°
2026-04-24 06:18 40.23990 114.89422 34866 ft 502 kts 94°
2026-04-24 06:18 40.23548 114.98538 34885 ft 502 kts 94°
2026-04-24 06:19 40.23098 115.07664 34872 ft 502 kts 94°
2026-04-24 06:19 40.22641 115.16787 34868 ft 503 kts 94°
2026-04-24 06:20 40.22178 115.25858 34871 ft 503 kts 94°
2026-04-24 06:20 40.21706 115.35004 34855 ft 504 kts 94°
2026-04-24 06:21 40.21226 115.44159 34871 ft 505 kts 94°
2026-04-24 06:21 40.20739 115.53330 34874 ft 506 kts 94°
2026-04-24 06:22 40.20248 115.62529 34866 ft 507 kts 94°
2026-04-24 06:22 40.19759 115.71732 34865 ft 508 kts 95°
2026-04-24 06:23 40.19268 115.80961 34871 ft 509 kts 95°
2026-04-24 06:23 40.18780 115.90139 34876 ft 509 kts 95°
2026-04-24 06:24 40.18290 115.99371 34862 ft 509 kts 95°
2026-04-24 06:24 40.17799 116.08606 34888 ft 509 kts 95°
2026-04-24 06:25 40.17308 116.17856 34874 ft 510 kts 95°
2026-04-24 06:25 40.16820 116.27064 34858 ft 498 kts 95°
2026-04-24 06:25 40.16586 116.31509 34854 ft 482 kts 95°
2026-04-24 06:26 40.16362 116.35816 34855 ft 468 kts 95°
2026-04-24 06:26 40.16146 116.39986 34853 ft 453 kts 95°
2026-04-24 06:26 40.15936 116.44083 34868 ft 451 kts 95°
2026-04-24 06:27 40.15516 116.52257 34882 ft 451 kts 95°
2026-04-24 06:27 40.15096 116.60447 34886 ft 452 kts 95°
2026-04-24 06:28 40.14675 116.68646 34886 ft 453 kts 95°
2026-04-24 06:28 40.14249 116.76932 34902 ft 464 kts 95°
2026-04-24 06:29 40.13807 116.85437 34893 ft 478 kts 95°
2026-04-24 06:29 40.13347 116.94240 34890 ft 492 kts 95°
2026-04-24 06:30 40.12872 117.03264 34886 ft 504 kts 95°
2026-04-24 06:30 40.12383 117.12488 34879 ft 514 kts 95°
2026-04-24 06:31 40.11886 117.21838 34868 ft 517 kts 95°
2026-04-24 06:31 40.11388 117.31205 34871 ft 517 kts 95°
2026-04-24 06:32 40.10891 117.40582 34874 ft 517 kts 95°
2026-04-24 06:32 40.10397 117.49952 34856 ft 516 kts 95°
2026-04-24 06:33 40.09906 117.59241 34867 ft 515 kts 95°
2026-04-24 06:33 40.09412 117.68581 34872 ft 515 kts 95°
2026-04-24 06:34 40.08919 117.77911 34869 ft 514 kts 95°
2026-04-24 06:34 40.08427 117.87237 34861 ft 514 kts 95°
2026-04-24 06:35 40.08017 117.94980 34863 ft 514 kts 95°
2026-04-24 06:35 40.07525 118.04293 34867 ft 514 kts 95°
2026-04-24 06:36 40.07034 118.13613 34879 ft 515 kts 95°
2026-04-24 06:36 40.06540 118.22961 34875 ft 516 kts 95°
2026-04-24 06:37 40.06044 118.32322 34878 ft 517 kts 95°
2026-04-24 06:37 40.05549 118.41692 34868 ft 518 kts 95°
2026-04-24 06:38 40.05053 118.51063 34863 ft 518 kts 95°
2026-04-24 06:38 40.04557 118.60434 34872 ft 517 kts 95°
2026-04-24 06:39 40.04063 118.69748 34863 ft 517 kts 95°
2026-04-24 06:39 40.03568 118.79108 34873 ft 517 kts 95°
2026-04-24 06:40 40.03072 118.88469 34878 ft 517 kts 95°
2026-04-24 06:40 40.02576 118.97829 34887 ft 517 kts 95°
2026-04-24 06:41 40.02080 119.07200 34875 ft 518 kts 95°
2026-04-24 06:41 40.01583 119.16589 34875 ft 519 kts 95°
2026-04-24 06:42 40.01085 119.26001 34876 ft 520 kts 95°
2026-04-24 06:42 40.00586 119.35408 34880 ft 520 kts 95°
2026-04-24 06:43 40.00088 119.44817 34882 ft 519 kts 94°
2026-04-24 06:43 40.00652 119.54191 34871 ft 520 kts 76°
2026-04-24 06:43 40.01734 119.58681 34878 ft 518 kts 64°
2026-04-24 06:44 40.03624 119.62626 34894 ft 511 kts 45°
2026-04-24 06:44 40.06203 119.65660 34899 ft 503 kts 29°
2026-04-24 06:44 40.09264 119.67775 34891 ft 494 kts 15°
2026-04-24 06:44 40.12553 119.68887 34889 ft 485 kts
2026-04-24 06:45 40.15882 119.68972 34881 ft 475 kts 348°
2026-04-24 06:45 40.19066 119.68052 34878 ft 465 kts 334°
2026-04-24 06:45 40.21938 119.66224 34882 ft 455 kts 321°
2026-04-24 06:45 40.24372 119.63639 34881 ft 448 kts 309°
2026-04-24 06:46 40.26279 119.60456 34881 ft 442 kts 298°
2026-04-24 06:46 40.27594 119.56852 34879 ft 438 kts 287°
2026-04-24 06:46 40.28381 119.53015 34876 ft 435 kts 278°
2026-04-24 06:46 40.28674 119.49079 34871 ft 434 kts 267°
2026-04-24 06:47 40.28220 119.45206 34872 ft 429 kts 258°
2026-04-24 06:47 40.27013 119.37583 34875 ft 431 kts 259°
2026-04-24 06:48 40.25860 119.29863 34873 ft 433 kts 259°
2026-04-24 06:48 40.24727 119.22120 34876 ft 433 kts 259°
2026-04-24 06:49 40.23593 119.14356 34872 ft 434 kts 259°
2026-04-24 06:49 40.22453 119.06592 34873 ft 435 kts 259°
2026-04-24 06:50 40.21305 118.98824 34858 ft 434 kts 259°
2026-04-24 06:50 40.20155 118.91078 34875 ft 434 kts 259°
2026-04-24 06:51 40.19007 118.83383 34871 ft 434 kts 259°
2026-04-24 06:51 40.17845 118.75634 34873 ft 434 kts 259°
2026-04-24 06:52 40.16680 118.67898 34871 ft 434 kts 259°
2026-04-24 06:52 40.15509 118.60160 34868 ft 434 kts 259°
2026-04-24 06:53 40.14333 118.52425 34847 ft 434 kts 259°
2026-04-24 06:53 40.13150 118.44677 34864 ft 435 kts 259°
2026-04-24 06:54 40.11959 118.36923 34868 ft 436 kts 258°
2026-04-24 06:54 40.10760 118.29150 34868 ft 437 kts 258°
2026-04-24 06:55 40.09554 118.21371 34873 ft 437 kts 258°
2026-04-24 06:55 40.08343 118.13585 34861 ft 438 kts 258°
2026-04-24 06:56 40.07133 118.05851 34854 ft 437 kts 258°
2026-04-24 06:56 40.05911 117.98073 34860 ft 437 kts 258°
2026-04-24 06:57 40.04682 117.90287 34869 ft 438 kts 258°
2026-04-24 06:57 40.03447 117.82499 34862 ft 438 kts 258°
2026-04-24 06:58 40.02207 117.74715 34866 ft 438 kts 258°
2026-04-24 06:58 40.00961 117.66928 34860 ft 438 kts 258°
2026-04-24 06:59 39.99710 117.59143 34863 ft 439 kts 258°
2026-04-24 06:59 39.98453 117.51362 34861 ft 439 kts 258°
2026-04-24 07:00 39.97196 117.43616 34862 ft 440 kts 258°
2026-04-24 07:00 39.95925 117.35817 34879 ft 440 kts 258°
2026-04-24 07:01 39.94649 117.28014 34872 ft 440 kts 258°
2026-04-24 07:01 39.93366 117.20206 34863 ft 441 kts 258°
2026-04-24 07:02 39.92076 117.12397 34864 ft 441 kts 258°
2026-04-24 07:02 39.90780 117.04581 34870 ft 442 kts 258°
2026-04-24 07:03 39.89476 116.96757 34866 ft 442 kts 258°
2026-04-24 07:03 39.88182 116.89025 34849 ft 424 kts 258°
2026-04-24 07:03 39.87563 116.85338 34849 ft 410 kts 258°
2026-04-24 07:04 39.86965 116.81783 34846 ft 395 kts 258°
2026-04-24 07:04 39.86387 116.78356 34847 ft 382 kts 258°
2026-04-24 07:04 39.85815 116.74965 34869 ft 385 kts 258°
2026-04-24 07:05 39.84665 116.68172 34860 ft 384 kts 258°
2026-04-24 07:05 39.83517 116.61413 34860 ft 382 kts 258°
2026-04-24 07:06 39.82369 116.54686 34868 ft 381 kts 258°
2026-04-24 07:06 39.81408 116.49066 34885 ft 385 kts 258°
2026-04-24 07:07 39.80048 116.41142 34877 ft 387 kts 258°
2026-04-24 07:07 39.76215 116.32386 34872 ft 394 kts 207°
2026-04-24 07:08 39.73537 116.31483 34889 ft 408 kts 184°
2026-04-24 07:08 39.70697 116.32080 34869 ft 423 kts 161°
2026-04-24 07:08 39.68160 116.34086 34894 ft 432 kts 145°
2026-04-24 07:08 39.65684 116.36217 34854 ft 422 kts 163°
2026-04-24 07:09 39.62889 116.37224 34899 ft 416 kts 175°
2026-04-24 07:09 39.60011 116.37733 34895 ft 417 kts 179°
2026-04-24 07:09 39.54236 116.38356 34880 ft 419 kts 179°
2026-04-24 07:10 39.48477 116.39226 34887 ft 420 kts 177°
2026-04-24 07:10 39.42569 116.40177 34903 ft 435 kts 177°
2026-04-24 07:11 39.36454 116.41156 34887 ft 450 kts 177°
2026-04-24 07:11 39.30150 116.42120 34868 ft 458 kts 182°
2026-04-24 07:12 39.27027 116.41665 34870 ft 450 kts 202°
2026-04-24 07:12 39.24306 116.39781 34872 ft 445 kts 224°
2026-04-24 07:12 39.22347 116.36737 34880 ft 442 kts 244°
2026-04-24 07:12 39.21421 116.32974 34868 ft 444 kts 265°
2026-04-24 07:13 39.21660 116.29003 34872 ft 450 kts 285°
2026-04-24 07:13 39.22920 116.25294 34879 ft 455 kts 297°
2026-04-24 07:13 39.25857 116.18044 34857 ft 455 kts 285°
2026-04-24 07:14 39.26381 116.14044 34871 ft 452 kts 270°
2026-04-24 07:14 39.25925 116.10061 34862 ft 451 kts 250°
2026-04-24 07:14 39.24394 116.06544 34869 ft 453 kts 232°
2026-04-24 07:14 39.22146 116.03692 34877 ft 455 kts 221°
2026-04-24 07:15 39.19548 116.01379 34761 ft 452 kts 212°
2026-04-24 07:15 39.16715 115.99659 34435 ft 448 kts 204°
2026-04-24 07:15 39.13799 115.98438 33720 ft 446 kts 202°
2026-04-24 07:15 39.10933 115.96864 32530 ft 451 kts 211°
2026-04-24 07:16 39.08280 115.94658 31273 ft 458 kts 220°
2026-04-24 07:16 39.05914 115.91873 30017 ft 466 kts 230°
2026-04-24 07:16 39.03937 115.88572 29037 ft 464 kts 239°
2026-04-24 07:16 39.02444 115.84938 28410 ft 456 kts 249°
2026-04-24 07:17 39.01459 115.81094 27855 ft 449 kts 258°
2026-04-24 07:17 39.00997 115.77157 27265 ft 443 kts 267°
2026-04-24 07:17 39.01057 115.73224 26610 ft 440 kts 276°
2026-04-24 07:17 39.01638 115.69374 25953 ft 438 kts 286°
2026-04-24 07:18 39.02722 115.65728 25328 ft 436 kts 296°
2026-04-24 07:18 39.04276 115.62391 24746 ft 434 kts 306°
2026-04-24 07:18 39.06238 115.59477 24140 ft 424 kts 315°
2026-04-24 07:18 39.08465 115.57096 22971 ft 412 kts 324°
2026-04-24 07:19 39.10950 115.55333 21968 ft 400 kts 336°
2026-04-24 07:19 39.13554 115.54306 21677 ft 387 kts 347°
2026-04-24 07:19 39.16168 115.53783 21615 ft 374 kts 351°
2026-04-24 07:19 39.18720 115.53423 21525 ft 363 kts 352°
2026-04-24 07:20 39.21190 115.53138 21395 ft 349 kts 357°
2026-04-24 07:20 39.23569 115.53596 21123 ft 346 kts 19°
2026-04-24 07:20 39.25678 115.55036 20832 ft 344 kts 36°
2026-04-24 07:20 39.27394 115.57170 20412 ft 343 kts 46°
2026-04-24 07:21 39.28968 115.59489 19927 ft 345 kts 47°
2026-04-24 07:21 39.30527 115.61852 19501 ft 345 kts 47°
2026-04-24 07:21 39.32058 115.64181 19156 ft 343 kts 47°
2026-04-24 07:21 39.33598 115.66511 18845 ft 339 kts 47°
2026-04-24 07:22 39.35127 115.68812 18504 ft 337 kts 47°
2026-04-24 07:22 39.36658 115.71104 18125 ft 336 kts 47°
2026-04-24 07:22 39.38187 115.73385 17708 ft 335 kts 47°
2026-04-24 07:22 39.39708 115.75649 17323 ft 333 kts 47°
2026-04-24 07:23 39.41222 115.77905 16960 ft 331 kts 47°
2026-04-24 07:23 39.42730 115.80149 16593 ft 329 kts 47°
2026-04-24 07:23 39.44229 115.82382 16171 ft 329 kts 47°
2026-04-24 07:23 39.45732 115.84622 15777 ft 329 kts 47°
2026-04-24 07:24 39.46723 115.86098 15550 ft 327 kts 47°
2026-04-24 07:24 39.48211 115.88316 15211 ft 325 kts 47°
2026-04-24 07:24 39.49689 115.90521 14867 ft 323 kts 47°
2026-04-24 07:24 39.51160 115.92718 14519 ft 322 kts 48°
2026-04-24 07:25 39.52627 115.94911 14176 ft 321 kts 48°
2026-04-24 07:25 39.54079 115.97085 13919 ft 317 kts 48°
2026-04-24 07:25 39.55521 115.99242 13579 ft 316 kts 48°
2026-04-24 07:25 39.56958 116.01391 13199 ft 315 kts 48°
2026-04-24 07:26 39.58392 116.03539 12843 ft 314 kts 48°
2026-04-24 07:26 39.59818 116.05678 12471 ft 313 kts 48°
2026-04-24 07:26 39.61240 116.07813 12127 ft 312 kts 48°
2026-04-24 07:26 39.62652 116.09934 11810 ft 310 kts 48°
2026-04-24 07:27 39.64056 116.12044 11500 ft 308 kts 48°
2026-04-24 07:27 39.65453 116.14144 11165 ft 306 kts 48°
2026-04-24 07:27 39.66842 116.16234 10855 ft 305 kts 48°
2026-04-24 07:27 39.68220 116.18310 10516 ft 300 kts 48°
2026-04-24 07:28 39.69554 116.20322 9837 ft 289 kts 48°
2026-04-24 07:28 39.70857 116.22284 8775 ft 286 kts 48°
2026-04-24 07:28 39.72149 116.24232 7639 ft 281 kts 48°
2026-04-24 07:28 39.73356 116.26052 6119 ft 256 kts 48°
2026-04-24 07:29 39.74495 116.27911 4718 ft 274 kts 60°
2026-04-24 07:29 39.75041 116.30226 3608 ft 268 kts 92°
2026-04-24 07:29 39.74574 116.32477 2891 ft 251 kts 121°
2026-04-24 07:29 39.73714 116.34333 2456 ft 226 kts 130°
2026-04-24 07:30 39.72607 116.35461 2238 ft 184 kts 171°
2026-04-24 07:30 39.71481 116.35593 2146 ft 156 kts 176°
2026-04-24 07:30 39.70260 116.35768 2285 ft 186 kts 175°
2026-04-24 07:30 39.69015 116.35971 2294 ft 176 kts 174°
2026-04-24 07:31 39.67811 116.36158 2290 ft 173 kts 176°
2026-04-24 07:31 39.66595 116.36350 2287 ft 178 kts 174°
2026-04-24 07:31 39.65379 116.36580 2280 ft 173 kts 173°
2026-04-24 07:31 39.64162 116.36780 2299 ft 178 kts 176°
2026-04-24 07:32 39.62951 116.36890 2297 ft 175 kts 175°
2026-04-24 07:32 39.61712 116.37124 2033 ft 182 kts 173°
2026-04-24 07:32 39.60470 116.37348 1798 ft 179 kts 174°
2026-04-24 07:32 39.59256 116.37542 1576 ft 175 kts 175°
2026-04-24 07:33 39.58050 116.37730 1343 ft 173 kts 175°
2026-04-24 07:33 39.56918 116.37910 1102 ft 153 kts 176°
2026-04-24 07:33 39.55878 116.38073 932 ft 152 kts 175°
2026-04-24 07:33 39.54828 116.38241 735 ft 153 kts 175°
2026-04-24 07:34 39.53766 116.38408 565 ft 155 kts 174°
2026-04-24 07:34 39.52696 116.38593 314 ft 153 kts 175°
2026-04-24 07:34 39.51629 116.38759 148 ft 157 kts 175°
2026-04-24 07:34 39.50597 116.38916 101 ft 135 kts 173°
2026-04-24 07:35 39.49790 116.39042 103 ft 99 kts 174°
2026-04-24 07:35 39.49339 116.39179 105 ft 31 kts 141°
2026-04-24 07:35 39.49124 116.39375 96 ft 40 kts 146°
2026-04-24 07:35 39.49002 116.39518 94 ft 18 kts 88°
2026-04-24 07:36 39.49021 116.39676 95 ft 18 kts 83°
2026-04-24 07:36 39.49034 116.39834 96 ft 18 kts 83°
2026-04-24 07:36 39.49050 116.39991 104 ft 18 kts 83°
2026-04-24 07:36 39.49065 116.40143 103 ft 18 kts 83°
2026-04-24 07:37 39.49080 116.40307 94 ft 18 kts 79°
2026-04-24 07:37 39.49182 116.40359 93 ft 18 kts 355°
2026-04-24 07:37 39.49305 116.40347 94 ft 18 kts 353°
2026-04-24 07:37 39.49428 116.40326 92 ft 18 kts 353°
2026-04-24 07:38 39.49550 116.40308 94 ft 18 kts 353°
2026-04-24 07:38 39.49672 116.40285 93 ft 18 kts 352°
2026-04-24 07:38 39.49820 116.40264 91 ft 27 kts 354°
2026-04-24 07:38 39.50007 116.40241 93 ft 15 kts 21°
2026-04-24 07:39 39.50031 116.40364 90 ft 15 kts 85°
2026-04-24 07:39 39.50045 116.40501 93 ft 16 kts 83°
2026-04-24 07:39 39.50058 116.40652 94 ft 17 kts 83°
2026-04-24 07:39 39.50075 116.40797 93 ft 15 kts 67°
2026-04-24 07:40 39.50169 116.40826 92 ft 15 kts 354°
2026-04-24 07:40 39.50271 116.40811 92 ft 15 kts 354°
2026-04-24 07:40 39.50376 116.40795 92 ft 15 kts 352°
2026-04-24 07:40 39.50478 116.40791 92 ft 15 kts 14°
2026-04-24 07:41 39.50567 116.40835 92 ft 13 kts 23°
2026-04-24 07:41 39.50648 116.40880 91 ft 13 kts 23°
2026-04-24 07:41 39.50713 116.40947 93 ft 8 kts 54°
2026-04-24 07:41 39.50726 116.40971 91 ft 3 kts 55°
2026-04-24 07:42 39.50740 116.40999 94 ft 4 kts 59°
2026-04-24 07:42 39.50743 116.41007 94 ft 1 kts 59°
2026-04-24 07:42 39.50744 116.41008 94 ft 0 kts 58°